Time,TemperatureF,DewpointF,PressureIn,WindDirection,WindDirectionDegrees,WindSpeedMPH,WindSpeedGustMPH,Humidity,HourlyPrecipIn,Conditions,Clouds,dailyrainin,SoftwareType,DateUTC
2013-05-22 00:00:00,37.3,35.7,29.91,ENE,76,14.0,21.0,94,0.06,,---,0.00,VWS V14.01,2013-05-22 08:00:00,
2013-05-22 00:02:00,37.3,35.7,29.91,SE,127,15.0,22.0,94,0.05,,---,0.00,VWS V14.01,2013-05-22 08:02:00,
2013-05-22 00:03:00,37.4,35.8,29.91,East,101,18.0,22.0,94,0.06,,---,0.01,VWS V14.01,2013-05-22 08:03:00,
2013-05-22 00:04:00,37.3,35.7,29.91,East,90,19.0,22.0,94,0.06,,---,0.01,VWS V14.01,2013-05-22 08:04:00,
2013-05-22 00:05:00,37.3,35.7,29.91,East,84,10.0,22.0,94,0.06,,---,0.01,VWS V14.01,2013-05-22 08:05:00,
2013-05-22 00:07:00,37.3,35.7,29.91,ESE,105,19.0,20.0,94,0.06,,---,0.01,VWS V14.01,2013-05-22 08:07:00,
2013-05-22 00:08:00,37.2,35.6,29.91,East,86,15.0,23.0,94,0.06,,---,0.01,VWS V14.01,2013-05-22 08:08:00,
2013-05-22 00:09:00,37.3,36.0,29.91,East,94,21.0,23.0,95,0.06,,---,0.01,VWS V14.01,2013-05-22 08:09:00,
2013-05-22 00:10:00,37.3,36.0,29.91,ESE,105,15.0,23.0,95,0.06,,---,0.01,VWS V14.01,2013-05-22 08:10:00,
2013-05-22 00:12:00,37.2,35.6,29.91,East,83,20.0,22.0,94,0.06,,---,0.02,VWS V14.01,2013-05-22 08:12:00,
2013-05-22 00:13:00,37.2,35.9,29.91,East,84,8.0,22.0,95,0.06,,---,0.02,VWS V14.01,2013-05-22 08:13:00,
2013-05-22 00:14:00,37.2,35.9,29.91,East,97,20.0,22.0,95,0.06,,---,0.02,VWS V14.01,2013-05-22 08:14:00,
2013-05-22 00:15:00,37.2,35.9,29.91,ESE,103,19.0,22.0,95,0.06,,---,0.02,VWS V14.01,2013-05-22 08:15:00,
2013-05-22 00:18:00,36.9,35.3,29.91,NE,40,16.0,22.0,94,0.75,,---,0.72,VWS V14.01,2013-05-22 08:18:00,
2013-05-22 00:19:00,36.9,35.3,29.91,ENE,62,11.0,22.0,94,0.75,,---,0.72,VWS V14.01,2013-05-22 08:19:00,
2013-05-22 00:20:00,36.8,35.5,29.91,NE,37,18.0,22.0,95,0.75,,---,0.72,VWS V14.01,2013-05-22 08:20:00,
2013-05-22 00:21:00,36.8,35.5,29.91,NE,42,10.0,22.0,95,0.75,,---,0.72,VWS V14.01,2013-05-22 08:21:00,
2013-05-22 00:23:00,36.8,35.5,29.91,ENE,57,14.0,19.0,95,0.75,,---,0.72,VWS V14.01,2013-05-22 08:23:00,
2013-05-22 00:25:00,36.8,35.5,29.91,NE,50,20.0,21.0,95,0.75,,---,0.72,VWS V14.01,2013-05-22 08:25:00,
2013-05-22 00:26:00,36.9,35.6,29.91,NNE,33,17.0,21.0,95,0.75,,---,0.72,VWS V14.01,2013-05-22 08:26:00,
2013-05-22 00:28:00,36.9,35.6,29.91,NE,42,12.0,22.0,95,0.74,,---,0.72,VWS V14.01,2013-05-22 08:28:00,
2013-05-22 00:30:00,36.9,35.6,29.91,NNE,28,13.0,22.0,95,0.74,,---,0.72,VWS V14.01,2013-05-22 08:30:00,
2013-05-22 00:31:00,36.9,35.6,29.91,ENE,63,11.0,22.0,95,0.74,,---,0.72,VWS V14.01,2013-05-22 08:31:00,
2013-05-22 00:33:00,36.8,35.5,29.91,NE,49,14.0,21.0,95,0.75,,---,0.73,VWS V14.01,2013-05-22 08:33:00,
2013-05-22 00:35:00,36.7,35.4,29.91,NE,42,10.0,21.0,95,0.75,,---,0.73,VWS V14.01,2013-05-22 08:35:00,
2013-05-22 00:36:00,36.7,35.4,29.91,NE,52,14.0,14.0,95,0.75,,---,0.73,VWS V14.01,2013-05-22 08:36:00,
2013-05-22 00:39:00,36.7,35.4,29.91,NE,47,17.0,20.0,95,0.75,,---,0.73,VWS V14.01,2013-05-22 08:39:00,
2013-05-22 00:40:00,36.8,35.5,29.91,NE,51,15.0,20.0,95,0.75,,---,0.73,VWS V14.01,2013-05-22 08:40:00,
2013-05-22 00:41:00,36.8,35.5,29.91,NE,49,11.0,20.0,95,0.75,,---,0.73,VWS V14.01,2013-05-22 08:41:00,
2013-05-22 00:42:00,36.8,35.5,29.91,NNE,28,10.0,22.0,95,0.75,,---,0.73,VWS V14.01,2013-05-22 08:42:00,
2013-05-22 00:44:00,36.8,35.5,29.91,ENE,75,15.0,22.0,95,0.75,,---,0.73,VWS V14.01,2013-05-22 08:44:00,
2013-05-22 00:45:00,36.9,35.6,29.91,NE,54,14.0,22.0,95,0.75,,---,0.73,VWS V14.01,2013-05-22 08:45:00,
2013-05-22 00:46:00,36.9,35.6,29.91,NE,50,15.0,16.0,95,0.75,,---,0.74,VWS V14.01,2013-05-22 08:46:00,
2013-05-22 00:47:00,36.9,35.6,29.91,ENE,59,19.0,23.0,95,0.75,,---,0.74,VWS V14.01,2013-05-22 08:47:00,
2013-05-22 00:49:00,37.0,35.7,29.92,NE,56,14.0,23.0,95,0.75,,---,0.74,VWS V14.01,2013-05-22 08:49:00,
2013-05-22 00:50:00,37.0,35.7,29.91,NE,44,16.0,23.0,95,0.75,,---,0.74,VWS V14.01,2013-05-22 08:50:00,
2013-05-22 00:51:00,37.1,35.8,29.91,NE,55,15.0,23.0,95,0.75,,---,0.74,VWS V14.01,2013-05-22 08:51:00,
2013-05-22 00:52:00,37.1,35.8,29.91,NE,53,13.0,19.0,95,0.75,,---,0.74,VWS V14.01,2013-05-22 08:52:00,
2013-05-22 00:54:00,37.2,35.9,29.91,ENE,65,21.0,21.0,95,0.75,,---,0.74,VWS V14.01,2013-05-22 08:54:00,
2013-05-22 00:55:00,37.3,36.0,29.91,ENE,68,11.0,22.0,95,0.75,,---,0.74,VWS V14.01,2013-05-22 08:55:00,
2013-05-22 00:56:00,37.2,35.9,29.91,NE,46,14.0,22.0,95,0.75,,---,0.74,VWS V14.01,2013-05-22 08:56:00,
2013-05-22 00:57:00,37.2,35.9,29.91,NE,50,12.0,13.0,95,0.74,,---,0.74,VWS V14.01,2013-05-22 08:57:00,
2013-05-22 00:59:00,37.1,35.8,29.91,ENE,57,13.0,20.0,95,0.74,,---,0.74,VWS V14.01,2013-05-22 08:59:00,
2013-05-22 01:01:00,37.1,35.5,29.91,NE,44,14.0,21.0,94,0.75,,---,0.75,VWS V14.01,2013-05-22 09:01:00,
2013-05-22 01:02:00,37.0,35.7,29.92,NNE,32,17.0,20.0,95,0.75,,---,0.75,VWS V14.01,2013-05-22 09:02:00,
2013-05-22 01:03:00,37.0,35.4,29.91,NNE,20,13.0,22.0,94,0.75,,---,0.75,VWS V14.01,2013-05-22 09:03:00,
2013-05-22 01:05:00,36.9,35.3,29.91,NE,53,11.0,22.0,94,0.75,,---,0.75,VWS V14.01,2013-05-22 09:05:00,
2013-05-22 01:06:00,36.9,35.3,29.91,NNE,28,10.0,22.0,94,0.75,,---,0.75,VWS V14.01,2013-05-22 09:06:00,
2013-05-22 01:07:00,36.8,35.2,29.91,NE,44,14.0,16.0,94,0.74,,---,0.75,VWS V14.01,2013-05-22 09:07:00,
2013-05-22 01:08:00,36.8,35.5,29.91,NE,46,10.0,20.0,95,0.74,,---,0.75,VWS V14.01,2013-05-22 09:08:00,
2013-05-22 01:10:00,36.9,35.6,29.91,NNE,31,8.0,21.0,95,0.74,,---,0.75,VWS V14.01,2013-05-22 09:10:00,
2013-05-22 01:11:00,36.9,35.6,29.91,NE,39,13.0,21.0,95,0.74,,---,0.75,VWS V14.01,2013-05-22 09:11:00,
2013-05-22 01:12:00,36.9,35.6,29.91,NNE,22,10.0,18.0,95,0.73,,---,0.75,VWS V14.01,2013-05-22 09:12:00,
2013-05-22 01:13:00,36.9,35.6,29.91,ENE,61,19.0,19.0,95,0.73,,---,0.75,VWS V14.01,2013-05-22 09:13:00,
2013-05-22 01:15:00,36.9,35.6,29.91,NE,38,11.0,20.0,95,0.73,,---,0.75,VWS V14.01,2013-05-22 09:15:00,
2013-05-22 01:16:00,36.9,35.6,29.91,NE,47,15.0,20.0,95,0.73,,---,0.75,VWS V14.01,2013-05-22 09:16:00,
2013-05-22 01:17:00,36.9,35.6,29.91,NE,43,16.0,16.0,95,0.73,,---,0.75,VWS V14.01,2013-05-22 09:17:00,
2013-05-22 01:18:00,36.9,35.6,29.91,NE,34,16.0,18.0,95,0.73,,---,0.75,VWS V14.01,2013-05-22 09:18:00,
2013-05-22 01:20:00,36.9,35.6,29.92,NE,43,8.0,26.0,95,0.73,,---,0.75,VWS V14.01,2013-05-22 09:20:00,
2013-05-22 01:21:00,36.8,35.5,29.91,ENE,78,13.0,26.0,95,0.73,,---,0.75,VWS V14.01,2013-05-22 09:21:00,
2013-05-22 01:22:00,36.8,35.5,29.91,NE,49,11.0,17.0,95,0.03,,---,0.75,VWS V14.01,2013-05-22 09:22:00,
2013-05-22 01:24:00,36.8,35.5,29.91,NE,42,17.0,19.0,95,0.04,,---,0.76,VWS V14.01,2013-05-22 09:24:00,
2013-05-22 01:26:00,36.9,35.6,29.91,NNE,33,10.0,19.0,95,0.04,,---,0.76,VWS V14.01,2013-05-22 09:26:00,
2013-05-22 01:27:00,36.9,35.6,29.92,NNE,24,10.0,17.0,95,0.04,,---,0.76,VWS V14.01,2013-05-22 09:27:00,
2013-05-22 01:30:00,36.9,35.6,29.91,NE,49,12.0,17.0,95,0.04,,---,0.76,VWS V14.01,2013-05-22 09:30:00,
2013-05-22 01:31:00,36.9,35.6,29.91,NE,51,12.0,17.0,95,0.04,,---,0.76,VWS V14.01,2013-05-22 09:31:00,
2013-05-22 01:32:00,36.9,35.6,29.91,NE,40,13.0,18.0,95,0.04,,---,0.76,VWS V14.01,2013-05-22 09:32:00,
2013-05-22 01:33:00,36.9,35.6,29.91,NE,50,8.0,18.0,95,0.04,,---,0.76,VWS V14.01,2013-05-22 09:33:00,
2013-05-22 01:35:00,36.9,35.6,29.91,NE,50,11.0,18.0,95,0.04,,---,0.76,VWS V14.01,2013-05-22 09:35:00,
2013-05-22 01:36:00,36.9,35.6,29.91,ENE,59,11.0,18.0,95,0.04,,---,0.76,VWS V14.01,2013-05-22 09:36:00,
2013-05-22 01:37:00,36.9,35.6,29.91,NE,39,16.0,16.0,95,0.03,,---,0.76,VWS V14.01,2013-05-22 09:37:00,
2013-05-22 01:38:00,36.9,35.6,29.91,NNE,32,12.0,18.0,95,0.03,,---,0.76,VWS V14.01,2013-05-22 09:38:00,
2013-05-22 01:40:00,36.9,35.6,29.91,NE,42,13.0,21.0,95,0.03,,---,0.76,VWS V14.01,2013-05-22 09:40:00,
2013-05-22 01:41:00,36.9,35.6,29.91,NE,41,12.0,21.0,95,0.03,,---,0.76,VWS V14.01,2013-05-22 09:41:00,
2013-05-22 01:42:00,36.9,35.6,29.91,NNE,29,9.0,16.0,95,0.03,,---,0.76,VWS V14.01,2013-05-22 09:42:00,
2013-05-22 01:43:00,36.9,35.6,29.91,ENE,71,12.0,16.0,95,0.03,,---,0.76,VWS V14.01,2013-05-22 09:43:00,
2013-05-22 01:45:00,37.0,35.7,29.91,ENE,58,21.0,23.0,95,0.03,,---,0.76,VWS V14.01,2013-05-22 09:45:00,
2013-05-22 01:46:00,37.0,35.7,29.91,NNE,28,14.0,23.0,95,0.03,,---,0.76,VWS V14.01,2013-05-22 09:46:00,
2013-05-22 01:47:00,37.0,35.7,29.91,NE,51,15.0,17.0,95,0.02,,---,0.76,VWS V14.01,2013-05-22 09:47:00,
2013-05-22 01:48:00,37.0,35.7,29.91,NE,54,14.0,18.0,95,0.02,,---,0.76,VWS V14.01,2013-05-22 09:48:00,
2013-05-22 01:51:00,36.9,35.6,29.91,NE,54,8.0,18.0,95,0.02,,---,0.76,VWS V14.01,2013-05-22 09:51:00,
2013-05-22 01:52:00,36.9,35.6,29.91,NE,43,13.0,19.0,95,0.02,,---,0.76,VWS V14.01,2013-05-22 09:52:00,
2013-05-22 01:53:00,37.0,35.7,29.91,NE,44,16.0,19.0,95,0.02,,---,0.76,VWS V14.01,2013-05-22 09:53:00,
2013-05-22 01:56:00,36.9,35.6,29.91,NE,50,14.0,19.0,95,0.03,,---,0.77,VWS V14.01,2013-05-22 09:56:00,
2013-05-22 01:57:00,36.9,35.6,29.91,ENE,63,19.0,21.0,95,0.03,,---,0.77,VWS V14.01,2013-05-22 09:57:00,
2013-05-22 01:58:00,36.8,35.5,29.91,NE,41,10.0,21.0,95,0.03,,---,0.77,VWS V14.01,2013-05-22 09:58:00,
2013-05-22 02:01:00,36.7,35.4,29.91,NNE,24,9.0,21.0,95,0.03,,---,0.77,VWS V14.01,2013-05-22 10:01:00,
2013-05-22 02:02:00,36.7,35.4,29.91,NE,49,11.0,17.0,95,0.02,,---,0.77,VWS V14.01,2013-05-22 10:02:00,
2013-05-22 02:03:00,36.7,35.4,29.91,NE,38,12.0,17.0,95,0.02,,---,0.77,VWS V14.01,2013-05-22 10:03:00,
2013-05-22 02:06:00,36.9,35.6,29.91,ENE,59,12.0,15.0,95,0.02,,---,0.77,VWS V14.01,2013-05-22 10:06:00,
2013-05-22 02:07:00,36.9,35.6,29.91,NE,46,14.0,17.0,95,0.02,,---,0.77,VWS V14.01,2013-05-22 10:07:00,
2013-05-22 02:08:00,36.9,35.6,29.91,NNE,30,16.0,17.0,95,0.02,,---,0.77,VWS V14.01,2013-05-22 10:08:00,
2013-05-22 02:12:00,37.0,35.7,29.90,NE,55,19.0,19.0,95,0.02,,---,0.77,VWS V14.01,2013-05-22 10:12:00,
2013-05-22 02:13:00,37.0,35.7,29.90,ENE,61,18.0,19.0,95,0.02,,---,0.77,VWS V14.01,2013-05-22 10:13:00,
2013-05-22 02:17:00,37.2,35.9,29.90,NE,53,18.0,18.0,95,0.02,,---,0.77,VWS V14.01,2013-05-22 10:17:00,
2013-05-22 02:18:00,37.2,35.9,29.90,NE,45,12.0,19.0,95,0.02,,---,0.77,VWS V14.01,2013-05-22 10:18:00,
2013-05-22 02:19:00,37.1,35.5,29.90,NE,45,12.0,19.0,94,0.02,,---,0.77,VWS V14.01,2013-05-22 10:19:00,
2013-05-22 02:22:00,37.1,35.5,29.90,NE,35,12.0,17.0,94,0.02,,---,0.77,VWS V14.01,2013-05-22 10:22:00,
2013-05-22 02:23:00,37.1,35.5,29.90,NE,52,11.0,23.0,94,0.02,,---,0.77,VWS V14.01,2013-05-22 10:23:00,
2013-05-22 02:24:00,37.1,35.5,29.90,ENE,66,10.0,23.0,94,0.02,,---,0.77,VWS V14.01,2013-05-22 10:24:00,
2013-05-22 02:28:00,37.0,35.7,29.90,NE,51,17.0,20.0,95,0.01,,---,0.77,VWS V14.01,2013-05-22 10:28:00,
2013-05-22 02:29:00,37.1,35.5,29.90,NE,44,17.0,20.0,94,0.01,,---,0.77,VWS V14.01,2013-05-22 10:29:00,
2013-05-22 02:30:00,37.1,35.5,29.90,NE,40,13.0,20.0,94,0.01,,---,0.77,VWS V14.01,2013-05-22 10:30:00,
2013-05-22 02:33:00,37.0,35.7,29.90,NE,49,13.0,17.0,95,0.01,,---,0.77,VWS V14.01,2013-05-22 10:33:00,
2013-05-22 02:34:00,37.0,35.7,29.90,NE,51,11.0,22.0,95,0.01,,---,0.77,VWS V14.01,2013-05-22 10:34:00,
2013-05-22 02:35:00,37.0,35.7,29.90,NE,47,14.0,22.0,95,0.01,,---,0.77,VWS V14.01,2013-05-22 10:35:00,
2013-05-22 02:38:00,37.0,35.4,29.90,NE,39,17.0,18.0,94,0.02,,---,0.78,VWS V14.01,2013-05-22 10:38:00,
2013-05-22 02:39:00,36.9,35.3,29.90,NNE,32,11.0,18.0,94,0.02,,---,0.78,VWS V14.01,2013-05-22 10:39:00,
2013-05-22 02:40:00,36.9,35.3,29.90,NE,44,16.0,18.0,94,0.02,,---,0.78,VWS V14.01,2013-05-22 10:40:00,
2013-05-22 02:43:00,36.9,35.6,29.90,NE,55,19.0,19.0,95,0.02,,---,0.78,VWS V14.01,2013-05-22 10:43:00,
2013-05-22 02:44:00,37.0,35.7,29.90,NE,51,15.0,20.0,95,0.02,,---,0.78,VWS V14.01,2013-05-22 10:44:00,
2013-05-22 02:45:00,36.9,35.6,29.90,ENE,69,14.0,20.0,95,0.02,,---,0.78,VWS V14.01,2013-05-22 10:45:00,
2013-05-22 02:48:00,37.0,35.7,29.90,NE,39,13.0,20.0,95,0.02,,---,0.78,VWS V14.01,2013-05-22 10:48:00,
2013-05-22 02:50:00,36.9,35.6,29.90,NE,52,17.0,21.0,95,0.02,,---,0.78,VWS V14.01,2013-05-22 10:50:00,
2013-05-22 02:51:00,36.9,35.6,29.90,ENE,68,12.0,21.0,95,0.02,,---,0.78,VWS V14.01,2013-05-22 10:51:00,
2013-05-22 02:54:00,37.0,35.7,29.90,East,90,20.0,21.0,95,0.02,,---,0.78,VWS V14.01,2013-05-22 10:54:00,
2013-05-22 02:55:00,37.0,35.7,29.90,NE,45,11.0,21.0,95,0.02,,---,0.78,VWS V14.01,2013-05-22 10:55:00,
2013-05-22 02:56:00,37.0,35.7,29.90,NNE,32,17.0,21.0,95,0.02,,---,0.78,VWS V14.01,2013-05-22 10:56:00,
2013-05-22 02:59:00,36.8,35.5,29.90,NE,44,10.0,15.0,95,0.01,,---,0.78,VWS V14.01,2013-05-22 10:59:00,
2013-05-22 03:00:00,36.8,35.5,29.90,ENE,61,10.0,17.0,95,0.01,,---,0.78,VWS V14.01,2013-05-22 11:00:00,
2013-05-22 03:01:00,36.8,35.5,29.90,NE,52,12.0,17.0,95,0.01,,---,0.78,VWS V14.01,2013-05-22 11:01:00,
2013-05-22 03:04:00,36.6,35.3,29.89,NNE,18,12.0,20.0,95,0.01,,---,0.78,VWS V14.01,2013-05-22 11:04:00,
2013-05-22 03:05:00,36.6,35.3,29.89,NE,46,13.0,20.0,95,0.01,,---,0.78,VWS V14.01,2013-05-22 11:05:00,
2013-05-22 03:06:00,36.6,35.3,29.89,NE,53,17.0,20.0,95,0.01,,---,0.78,VWS V14.01,2013-05-22 11:06:00,
2013-05-22 03:09:00,36.6,35.3,29.89,NE,42,11.0,16.0,95,0.01,,---,0.78,VWS V14.01,2013-05-22 11:09:00,
2013-05-22 03:10:00,36.6,35.3,29.90,NE,49,17.0,21.0,95,0.01,,---,0.78,VWS V14.01,2013-05-22 11:10:00,
2013-05-22 03:11:00,36.6,35.3,29.89,NNE,32,11.0,21.0,95,0.01,,---,0.78,VWS V14.01,2013-05-22 11:11:00,
2013-05-22 03:14:00,36.6,35.3,29.89,NE,40,16.0,20.0,95,0.02,,---,0.79,VWS V14.01,2013-05-22 11:14:00,
2013-05-22 03:15:00,36.6,35.3,29.89,NE,38,14.0,20.0,95,0.02,,---,0.79,VWS V14.01,2013-05-22 11:15:00,
2013-05-22 03:16:00,36.7,35.4,29.90,NNE,24,10.0,20.0,95,0.02,,---,0.79,VWS V14.01,2013-05-22 11:16:00,
2013-05-22 03:17:00,36.7,35.4,29.90,NE,38,14.0,18.0,95,0.02,,---,0.79,VWS V14.01,2013-05-22 11:17:00,
2013-05-22 03:19:00,36.7,35.4,29.90,NE,34,11.0,21.0,95,0.02,,---,0.79,VWS V14.01,2013-05-22 11:19:00,
2013-05-22 03:20:00,36.7,35.4,29.90,NE,36,12.0,21.0,95,0.02,,---,0.79,VWS V14.01,2013-05-22 11:20:00,
2013-05-22 03:21:00,36.7,35.4,29.90,NE,46,11.0,21.0,95,0.02,,---,0.79,VWS V14.01,2013-05-22 11:21:00,
2013-05-22 03:22:00,36.7,35.4,29.90,NE,40,9.0,17.0,95,0.02,,---,0.79,VWS V14.01,2013-05-22 11:22:00,
2013-05-22 03:25:00,36.7,36.7,29.89,NE,52,11.0,17.0,100,0.02,,---,0.79,VWS V14.01,2013-05-22 11:25:00,
2013-05-22 03:26:00,36.7,36.7,29.89,NNE,17,13.0,17.0,100,0.02,,---,0.79,VWS V14.01,2013-05-22 11:26:00,
2013-05-22 03:27:00,36.7,36.7,29.89,NE,40,11.0,14.0,100,0.03,,---,0.80,VWS V14.01,2013-05-22 11:27:00,
2013-05-22 03:30:00,36.6,35.3,29.89,ENE,71,15.0,19.0,95,0.03,,---,0.80,VWS V14.01,2013-05-22 11:30:00,
2013-05-22 03:31:00,36.6,35.3,29.89,NNE,13,13.0,19.0,95,0.03,,---,0.80,VWS V14.01,2013-05-22 11:31:00,
2013-05-22 03:32:00,36.6,35.3,29.89,NNE,27,12.0,18.0,95,0.03,,---,0.80,VWS V14.01,2013-05-22 11:32:00,
2013-05-22 03:35:00,36.6,35.3,29.89,NE,49,16.0,20.0,95,0.03,,---,0.80,VWS V14.01,2013-05-22 11:35:00,
2013-05-22 03:36:00,36.7,35.4,29.89,NE,50,16.0,20.0,95,0.03,,---,0.80,VWS V14.01,2013-05-22 11:36:00,
2013-05-22 03:37:00,36.7,35.4,29.89,NE,41,16.0,16.0,95,0.03,,---,0.80,VWS V14.01,2013-05-22 11:37:00,
2013-05-22 03:38:00,36.7,35.4,29.89,NNE,15,15.0,17.0,95,0.03,,---,0.80,VWS V14.01,2013-05-22 11:38:00,
2013-05-22 03:40:00,36.8,35.5,29.89,NE,44,11.0,19.0,95,0.03,,---,0.80,VWS V14.01,2013-05-22 11:40:00,
2013-05-22 03:42:00,36.8,35.5,29.89,ENE,58,11.0,16.0,95,0.02,,---,0.80,VWS V14.01,2013-05-22 11:42:00,
2013-05-22 03:43:00,36.8,35.5,29.89,NE,50,13.0,16.0,95,0.02,,---,0.80,VWS V14.01,2013-05-22 11:43:00,
2013-05-22 03:45:00,36.8,35.5,29.89,NE,43,9.0,17.0,95,0.02,,---,0.80,VWS V14.01,2013-05-22 11:45:00,
2013-05-22 03:46:00,36.8,35.5,29.89,ENE,62,14.0,17.0,95,0.02,,---,0.80,VWS V14.01,2013-05-22 11:46:00,
2013-05-22 03:47:00,36.7,35.4,29.89,NNE,19,9.0,12.0,95,0.02,,---,0.80,VWS V14.01,2013-05-22 11:47:00,
2013-05-22 03:48:00,36.6,35.3,29.89,ENE,63,11.0,14.0,95,0.02,,---,0.80,VWS V14.01,2013-05-22 11:48:00,
2013-05-22 03:50:00,36.4,35.1,29.89,NE,42,13.0,17.0,95,0.03,,---,0.81,VWS V14.01,2013-05-22 11:50:00,
2013-05-22 03:51:00,36.4,35.1,29.89,NE,49,14.0,17.0,95,0.03,,---,0.81,VWS V14.01,2013-05-22 11:51:00,
2013-05-22 03:52:00,36.4,35.1,29.89,NE,37,9.0,20.0,95,0.03,,---,0.81,VWS V14.01,2013-05-22 11:52:00,
2013-05-22 03:53:00,36.4,35.1,29.89,NE,42,8.0,20.0,95,0.03,,---,0.81,VWS V14.01,2013-05-22 11:53:00,
2013-05-22 03:56:00,36.3,35.0,29.89,NE,36,12.0,20.0,95,0.03,,---,0.81,VWS V14.01,2013-05-22 11:56:00,
2013-05-22 03:57:00,36.4,35.1,29.89,NE,49,16.0,19.0,95,0.03,,---,0.81,VWS V14.01,2013-05-22 11:57:00,
2013-05-22 03:58:00,36.4,35.1,29.89,NNE,27,14.0,19.0,95,0.03,,---,0.81,VWS V14.01,2013-05-22 11:58:00,
2013-05-22 04:01:00,36.3,35.0,29.89,NE,45,10.0,19.0,95,0.03,,---,0.81,VWS V14.01,2013-05-22 12:01:00,
2013-05-22 04:02:00,36.3,35.0,29.89,NNE,31,10.0,16.0,95,0.03,,---,0.81,VWS V14.01,2013-05-22 12:02:00,
2013-05-22 04:03:00,36.4,35.1,29.89,North,5,13.0,16.0,95,0.03,,---,0.81,VWS V14.01,2013-05-22 12:03:00,
2013-05-22 04:04:00,36.3,35.0,29.89,NE,37,8.0,16.0,95,0.03,,---,0.81,VWS V14.01,2013-05-22 12:04:00,
2013-05-22 04:06:00,36.3,35.0,29.89,NE,42,11.0,17.0,95,0.04,,---,0.82,VWS V14.01,2013-05-22 12:06:00,
2013-05-22 04:07:00,36.3,35.0,29.89,NNE,13,9.0,14.0,95,0.04,,---,0.82,VWS V14.01,2013-05-22 12:07:00,
2013-05-22 04:09:00,36.4,35.1,29.89,NNE,22,11.0,17.0,95,0.04,,---,0.82,VWS V14.01,2013-05-22 12:09:00,
2013-05-22 04:11:00,36.4,35.1,29.89,NNE,32,9.0,17.0,95,0.04,,---,0.82,VWS V14.01,2013-05-22 12:11:00,
2013-05-22 04:13:00,36.4,35.1,29.89,NE,47,15.0,17.0,95,0.04,,---,0.82,VWS V14.01,2013-05-22 12:13:00,
2013-05-22 04:14:00,36.3,35.0,29.88,North,5,10.0,17.0,95,0.04,,---,0.82,VWS V14.01,2013-05-22 12:14:00,
2013-05-22 04:16:00,36.3,35.0,29.89,NE,47,17.0,18.0,95,0.04,,---,0.82,VWS V14.01,2013-05-22 12:16:00,
2013-05-22 04:18:00,36.3,35.0,29.88,NNE,31,12.0,19.0,95,0.03,,---,0.82,VWS V14.01,2013-05-22 12:18:00,
2013-05-22 04:19:00,36.3,35.0,29.89,NE,40,12.0,19.0,95,0.03,,---,0.82,VWS V14.01,2013-05-22 12:19:00,
2013-05-22 04:21:00,36.2,34.9,29.88,NE,40,11.0,19.0,95,0.03,,---,0.82,VWS V14.01,2013-05-22 12:21:00,
2013-05-22 04:22:00,36.2,34.9,29.89,NE,36,9.0,10.0,95,0.03,,---,0.82,VWS V14.01,2013-05-22 12:22:00,
2013-05-22 04:23:00,36.1,34.8,29.88,NE,56,8.0,18.0,95,0.04,,---,0.83,VWS V14.01,2013-05-22 12:23:00,
2013-05-22 04:24:00,36.1,34.8,29.88,NNE,25,15.0,18.0,95,0.04,,---,0.83,VWS V14.01,2013-05-22 12:24:00,
2013-05-22 04:26:00,36.1,34.8,29.88,NNE,22,10.0,18.0,95,0.04,,---,0.83,VWS V14.01,2013-05-22 12:26:00,
2013-05-22 04:27:00,36.1,34.8,29.88,NNE,20,9.0,13.0,95,0.04,,---,0.83,VWS V14.01,2013-05-22 12:27:00,
2013-05-22 04:28:00,36.2,34.9,29.88,NNE,25,10.0,18.0,95,0.04,,---,0.83,VWS V14.01,2013-05-22 12:28:00,
2013-05-22 04:29:00,36.2,34.9,29.88,NNE,24,8.0,18.0,95,0.04,,---,0.83,VWS V14.01,2013-05-22 12:29:00,
2013-05-22 04:32:00,36.2,34.9,29.88,NE,42,12.0,14.0,95,0.03,,---,0.83,VWS V14.01,2013-05-22 12:32:00,
2013-05-22 04:33:00,36.1,34.8,29.88,NE,42,9.0,18.0,95,0.03,,---,0.83,VWS V14.01,2013-05-22 12:33:00,
2013-05-22 04:35:00,36.2,34.9,29.88,NNE,15,12.0,18.0,95,0.04,,---,0.84,VWS V14.01,2013-05-22 12:35:00,
2013-05-22 04:37:00,36.1,34.8,29.88,NE,38,12.0,17.0,95,0.04,,---,0.84,VWS V14.01,2013-05-22 12:37:00,
2013-05-22 04:38:00,36.1,34.8,29.88,NE,40,17.0,18.0,95,0.04,,---,0.84,VWS V14.01,2013-05-22 12:38:00,
2013-05-22 04:40:00,36.1,34.8,29.88,NE,40,13.0,18.0,95,0.04,,---,0.84,VWS V14.01,2013-05-22 12:40:00,
2013-05-22 04:42:00,36.0,34.7,29.88,NE,53,12.0,16.0,95,0.04,,---,0.84,VWS V14.01,2013-05-22 12:42:00,
2013-05-22 04:43:00,36.1,34.8,29.88,NNE,15,10.0,16.0,95,0.04,,---,0.84,VWS V14.01,2013-05-22 12:43:00,
2013-05-22 04:45:00,36.1,34.8,29.88,NE,38,8.0,17.0,95,0.04,,---,0.84,VWS V14.01,2013-05-22 12:45:00,
2013-05-22 04:47:00,36.0,34.7,29.88,NE,56,10.0,14.0,95,0.04,,---,0.84,VWS V14.01,2013-05-22 12:47:00,
2013-05-22 04:49:00,36.0,34.7,29.88,NE,34,9.0,16.0,95,0.04,,---,0.84,VWS V14.01,2013-05-22 12:49:00,
2013-05-22 04:50:00,36.0,34.7,29.88,NNE,16,9.0,16.0,95,0.04,,---,0.84,VWS V14.01,2013-05-22 12:50:00,
2013-05-22 04:52:00,36.1,35.1,29.88,NNE,32,12.0,15.0,96,0.03,,---,0.84,VWS V14.01,2013-05-22 12:52:00,
2013-05-22 04:54:00,36.0,35.0,29.88,NE,40,12.0,15.0,96,0.04,,---,0.85,VWS V14.01,2013-05-22 12:54:00,
2013-05-22 04:55:00,36.1,35.1,29.88,NNE,22,13.0,16.0,96,0.04,,---,0.85,VWS V14.01,2013-05-22 12:55:00,
2013-05-22 04:56:00,36.0,35.0,29.88,NE,44,11.0,16.0,96,0.04,,---,0.85,VWS V14.01,2013-05-22 12:56:00,
2013-05-22 04:57:00,36.1,35.1,29.88,NNE,29,11.0,15.0,96,0.04,,---,0.85,VWS V14.01,2013-05-22 12:57:00,
2013-05-22 04:58:00,36.1,35.1,29.88,NE,39,8.0,18.0,96,0.04,,---,0.85,VWS V14.01,2013-05-22 12:58:00,
2013-05-22 04:59:00,36.1,35.1,29.88,NNE,33,8.0,18.0,96,0.04,,---,0.85,VWS V14.01,2013-05-22 12:59:00,
2013-05-22 05:00:00,36.1,35.1,29.88,ENE,60,10.0,18.0,96,0.04,,---,0.85,VWS V14.01,2013-05-22 13:00:00,
2013-05-22 05:01:00,36.1,35.1,29.88,ENE,57,13.0,18.0,96,0.04,,---,0.85,VWS V14.01,2013-05-22 13:01:00,
2013-05-22 05:03:00,36.1,35.1,29.88,NNE,24,8.0,16.0,96,0.04,,---,0.85,VWS V14.01,2013-05-22 13:03:00,
2013-05-22 05:04:00,36.1,35.1,29.88,NE,35,10.0,16.0,96,0.04,,---,0.85,VWS V14.01,2013-05-22 13:04:00,
2013-05-22 05:05:00,36.1,35.1,29.88,NE,46,12.0,17.0,96,0.05,,---,0.86,VWS V14.01,2013-05-22 13:05:00,
2013-05-22 05:06:00,36.0,35.0,29.88,NE,48,14.0,17.0,96,0.05,,---,0.86,VWS V14.01,2013-05-22 13:06:00,
2013-05-22 05:08:00,36.1,35.1,29.88,NNE,30,8.0,16.0,96,0.04,,---,0.86,VWS V14.01,2013-05-22 13:08:00,
2013-05-22 05:09:00,36.1,35.1,29.88,NNE,32,9.0,16.0,96,0.04,,---,0.86,VWS V14.01,2013-05-22 13:09:00,
2013-05-22 05:10:00,36.1,35.1,29.88,NE,55,11.0,16.0,96,0.04,,---,0.86,VWS V14.01,2013-05-22 13:10:00,
2013-05-22 05:11:00,36.0,35.0,29.88,NE,51,11.0,16.0,96,0.04,,---,0.86,VWS V14.01,2013-05-22 13:11:00,
2013-05-22 05:13:00,36.0,35.0,29.88,NNE,30,11.0,17.0,96,0.04,,---,0.86,VWS V14.01,2013-05-22 13:13:00,
2013-05-22 05:14:00,36.1,35.1,29.88,NNE,19,10.0,17.0,96,0.04,,---,0.86,VWS V14.01,2013-05-22 13:14:00,
2013-05-22 05:16:00,36.1,35.1,29.88,NE,41,11.0,18.0,96,0.04,,---,0.86,VWS V14.01,2013-05-22 13:16:00,
2013-05-22 05:18:00,36.2,35.2,29.88,ENE,57,8.0,16.0,96,0.04,,---,0.86,VWS V14.01,2013-05-22 13:18:00,
2013-05-22 05:19:00,36.2,35.2,29.88,ENE,59,10.0,16.0,96,0.04,,---,0.86,VWS V14.01,2013-05-22 13:19:00,
2013-05-22 05:21:00,36.3,35.3,29.88,ENE,63,10.0,17.0,96,0.04,,---,0.86,VWS V14.01,2013-05-22 13:21:00,
2013-05-22 05:22:00,36.3,35.3,29.88,NE,49,8.0,15.0,96,0.04,,---,0.86,VWS V14.01,2013-05-22 13:22:00,
2013-05-22 05:23:00,36.5,35.5,29.88,NE,49,15.0,20.0,96,0.05,,---,0.87,VWS V14.01,2013-05-22 13:23:00,
2013-05-22 05:24:00,36.5,35.5,29.88,North,5,9.0,20.0,96,0.05,,---,0.87,VWS V14.01,2013-05-22 13:24:00,
2013-05-22 05:26:00,36.5,35.5,29.88,ENE,59,19.0,20.0,96,0.05,,---,0.87,VWS V14.01,2013-05-22 13:26:00,
2013-05-22 05:27:00,36.5,35.5,29.88,ENE,58,15.0,15.0,96,0.04,,---,0.87,VWS V14.01,2013-05-22 13:27:00,
2013-05-22 05:29:00,36.6,35.6,29.88,NE,56,10.0,18.0,96,0.04,,---,0.87,VWS V14.01,2013-05-22 13:29:00,
2013-05-22 05:30:00,36.6,35.6,29.88,NE,53,16.0,18.0,96,0.04,,---,0.87,VWS V14.01,2013-05-22 13:30:00,
2013-05-22 05:31:00,36.6,35.6,29.88,NNE,26,10.0,19.0,96,0.04,,---,0.87,VWS V14.01,2013-05-22 13:31:00,
2013-05-22 05:32:00,36.7,35.7,29.88,ENE,61,7.0,17.0,96,0.04,,---,0.87,VWS V14.01,2013-05-22 13:32:00,
2013-05-22 05:34:00,36.8,35.8,29.88,NE,41,10.0,20.0,96,0.05,,---,0.88,VWS V14.01,2013-05-22 13:34:00,
2013-05-22 05:35:00,36.8,35.8,29.88,NE,40,10.0,20.0,96,0.05,,---,0.88,VWS V14.01,2013-05-22 13:35:00,
2013-05-22 05:36:00,36.8,35.5,29.88,NE,43,7.0,20.0,95,0.05,,---,0.88,VWS V14.01,2013-05-22 13:36:00,
2013-05-22 05:37:00,36.8,35.5,29.88,ENE,57,16.0,17.0,95,0.04,,---,0.88,VWS V14.01,2013-05-22 13:37:00,
2013-05-22 05:39:00,36.8,35.5,29.88,NE,53,15.0,17.0,95,0.04,,---,0.88,VWS V14.01,2013-05-22 13:39:00,
2013-05-22 05:40:00,36.8,35.5,29.88,NE,42,12.0,18.0,95,0.04,,---,0.88,VWS V14.01,2013-05-22 13:40:00,
2013-05-22 05:42:00,36.9,35.6,29.88,ENE,59,14.0,18.0,95,0.04,,---,0.88,VWS V14.01,2013-05-22 13:42:00,
2013-05-22 05:43:00,37.0,35.7,29.88,NE,49,12.0,18.0,95,0.04,,---,0.88,VWS V14.01,2013-05-22 13:43:00,
2013-05-22 05:44:00,37.0,35.7,29.88,NE,51,10.0,18.0,95,0.04,,---,0.88,VWS V14.01,2013-05-22 13:44:00,
2013-05-22 05:45:00,37.0,35.7,29.88,NNE,24,11.0,18.0,95,0.04,,---,0.88,VWS V14.01,2013-05-22 13:45:00,
2013-05-22 05:47:00,37.0,35.7,29.88,ENE,76,11.0,15.0,95,0.04,,---,0.88,VWS V14.01,2013-05-22 13:47:00,
2013-05-22 05:48:00,36.9,35.6,29.88,ENE,59,10.0,15.0,95,0.04,,---,0.88,VWS V14.01,2013-05-22 13:48:00,
2013-05-22 05:50:00,36.9,35.6,29.88,NE,40,9.0,17.0,95,0.04,,---,0.88,VWS V14.01,2013-05-22 13:50:00,
2013-05-22 05:52:00,36.9,35.6,29.88,NE,40,9.0,14.0,95,0.05,,---,0.89,VWS V14.01,2013-05-22 13:52:00,
2013-05-22 05:53:00,36.9,35.6,29.88,NE,36,12.0,14.0,95,0.05,,---,0.89,VWS V14.01,2013-05-22 13:53:00,
2013-05-22 05:55:00,36.8,35.5,29.88,NE,35,8.0,18.0,95,0.05,,---,0.89,VWS V14.01,2013-05-22 13:55:00,
2013-05-22 05:58:00,36.6,35.3,29.87,NE,34,8.0,13.0,95,0.04,,---,0.89,VWS V14.01,2013-05-22 13:58:00,
2013-05-22 05:59:00,36.6,35.3,29.87,NE,46,10.0,13.0,95,0.04,,---,0.89,VWS V14.01,2013-05-22 13:59:00,
2013-05-22 06:00:00,36.5,35.2,29.87,NNE,13,10.0,13.0,95,0.04,,---,0.89,VWS V14.01,2013-05-22 14:00:00,
2013-05-22 06:01:00,36.4,35.1,29.87,NNE,13,14.0,16.0,95,0.04,,---,0.89,VWS V14.01,2013-05-22 14:01:00,
2013-05-22 06:03:00,36.3,35.0,29.87,NE,44,12.0,13.0,95,0.04,,---,0.89,VWS V14.01,2013-05-22 14:03:00,
2013-05-22 06:04:00,36.2,34.9,29.87,NNE,23,9.0,13.0,95,0.04,,---,0.89,VWS V14.01,2013-05-22 14:04:00,
2013-05-22 06:05:00,36.2,34.9,29.87,NE,49,6.0,16.0,95,0.05,,---,0.90,VWS V14.01,2013-05-22 14:05:00,
2013-05-22 06:07:00,36.1,34.8,29.87,NNE,21,8.0,16.0,95,0.04,,---,0.90,VWS V14.01,2013-05-22 14:07:00,
2013-05-22 06:08:00,36.1,34.8,29.87,NE,37,12.0,16.0,95,0.04,,---,0.90,VWS V14.01,2013-05-22 14:08:00,
2013-05-22 06:09:00,36.1,34.8,29.86,North,5,15.0,16.0,95,0.04,,---,0.90,VWS V14.01,2013-05-22 14:09:00,
2013-05-22 06:11:00,36.1,34.8,29.86,North,9,12.0,16.0,95,0.04,,---,0.90,VWS V14.01,2013-05-22 14:11:00,
2013-05-22 06:12:00,36.1,34.8,29.86,NNE,28,13.0,16.0,95,0.04,,---,0.90,VWS V14.01,2013-05-22 14:12:00,
2013-05-22 06:13:00,36.1,34.8,29.86,NE,56,13.0,16.0,95,0.04,,---,0.90,VWS V14.01,2013-05-22 14:13:00,
2013-05-22 06:14:00,36.1,34.8,29.86,ENE,59,11.0,16.0,95,0.04,,---,0.90,VWS V14.01,2013-05-22 14:14:00,
2013-05-22 06:16:00,36.0,34.7,29.86,North,9,15.0,18.0,95,0.04,,---,0.90,VWS V14.01,2013-05-22 14:16:00,
2013-05-22 06:17:00,36.0,35.0,29.86,NNE,30,10.0,14.0,96,0.04,,---,0.90,VWS V14.01,2013-05-22 14:17:00,
2013-05-22 06:19:00,36.0,35.0,29.86,NNE,26,11.0,15.0,96,0.04,,---,0.90,VWS V14.01,2013-05-22 14:19:00,
2013-05-22 06:21:00,36.1,35.1,29.86,NNE,24,10.0,17.0,96,0.04,,---,0.90,VWS V14.01,2013-05-22 14:21:00,
2013-05-22 06:22:00,36.1,35.1,29.86,NNE,18,11.0,14.0,96,0.04,,---,0.90,VWS V14.01,2013-05-22 14:22:00,
2013-05-22 06:24:00,36.0,35.0,29.86,NE,52,12.0,14.0,96,0.04,,---,0.90,VWS V14.01,2013-05-22 14:24:00,
2013-05-22 06:27:00,36.1,35.1,29.86,NNE,25,10.0,16.0,96,0.03,,---,0.90,VWS V14.01,2013-05-22 14:27:00,
2013-05-22 06:29:00,36.1,35.1,29.86,NNE,12,10.0,16.0,96,0.03,,---,0.90,VWS V14.01,2013-05-22 14:29:00,
2013-05-22 06:30:00,36.1,35.1,29.86,NNE,30,11.0,16.0,96,0.03,,---,0.90,VWS V14.01,2013-05-22 14:30:00,
2013-05-22 06:32:00,36.1,35.1,29.86,NNE,18,10.0,15.0,96,0.03,,---,0.90,VWS V14.01,2013-05-22 14:32:00,
2013-05-22 06:33:00,36.1,35.1,29.86,NE,40,13.0,15.0,96,0.03,,---,0.90,VWS V14.01,2013-05-22 14:33:00,
2013-05-22 06:34:00,36.2,35.2,29.86,NE,37,13.0,15.0,96,0.03,,---,0.90,VWS V14.01,2013-05-22 14:34:00,
2013-05-22 06:35:00,36.2,35.2,29.86,NE,40,14.0,16.0,96,0.04,,---,0.91,VWS V14.01,2013-05-22 14:35:00,
2013-05-22 06:36:00,36.2,35.2,29.86,NNE,20,11.0,16.0,96,0.04,,---,0.91,VWS V14.01,2013-05-22 14:36:00,
2013-05-22 06:37:00,36.2,35.2,29.86,NNE,22,11.0,14.0,96,0.03,,---,0.91,VWS V14.01,2013-05-22 14:37:00,
2013-05-22 06:39:00,36.2,35.2,29.86,NNE,17,9.0,14.0,96,0.03,,---,0.91,VWS V14.01,2013-05-22 14:39:00,
2013-05-22 06:40:00,36.2,35.2,29.86,NNE,32,11.0,17.0,96,0.03,,---,0.91,VWS V14.01,2013-05-22 14:40:00,
2013-05-22 06:41:00,36.2,35.2,29.86,NNE,16,11.0,17.0,96,0.03,,---,0.91,VWS V14.01,2013-05-22 14:41:00,
2013-05-22 06:42:00,36.1,35.1,29.86,NE,42,11.0,15.0,96,0.03,,---,0.91,VWS V14.01,2013-05-22 14:42:00,
2013-05-22 06:44:00,36.1,35.1,29.86,North,9,12.0,16.0,96,0.03,,---,0.91,VWS V14.01,2013-05-22 14:44:00,
2013-05-22 06:45:00,36.1,35.1,29.86,NE,49,10.0,18.0,96,0.03,,---,0.91,VWS V14.01,2013-05-22 14:45:00,
2013-05-22 06:46:00,36.1,35.1,29.86,NNE,25,13.0,18.0,96,0.03,,---,0.91,VWS V14.01,2013-05-22 14:46:00,
2013-05-22 06:47:00,36.2,35.2,29.86,NNE,30,9.0,14.0,96,0.03,,---,0.91,VWS V14.01,2013-05-22 14:47:00,
2013-05-22 06:49:00,36.2,35.2,29.86,NE,55,10.0,16.0,96,0.03,,---,0.91,VWS V14.01,2013-05-22 14:49:00,
2013-05-22 06:50:00,36.2,35.2,29.86,NNE,30,14.0,16.0,96,0.03,,---,0.91,VWS V14.01,2013-05-22 14:50:00,
2013-05-22 06:51:00,36.2,35.2,29.86,NE,43,7.0,16.0,96,0.03,,---,0.91,VWS V14.01,2013-05-22 14:51:00,
2013-05-22 06:52:00,36.2,35.2,29.86,NE,51,14.0,14.0,96,0.02,,---,0.91,VWS V14.01,2013-05-22 14:52:00,
2013-05-22 06:54:00,36.2,35.2,29.86,NE,36,10.0,16.0,96,0.03,,---,0.92,VWS V14.01,2013-05-22 14:54:00,
2013-05-22 06:55:00,36.3,35.3,29.86,NNE,33,12.0,16.0,96,0.03,,---,0.92,VWS V14.01,2013-05-22 14:55:00,
2013-05-22 06:56:00,36.3,35.3,29.86,NE,34,11.0,16.0,96,0.03,,---,0.92,VWS V14.01,2013-05-22 14:56:00,
2013-05-22 06:58:00,36.3,35.3,29.86,ENE,70,12.0,13.0,96,0.03,,---,0.92,VWS V14.01,2013-05-22 14:58:00,
2013-05-22 07:00:00,36.3,35.3,29.86,NNE,32,10.0,16.0,96,0.03,,---,0.92,VWS V14.01,2013-05-22 15:00:00,
2013-05-22 07:01:00,36.3,35.3,29.86,ENE,65,8.0,16.0,96,0.03,,---,0.92,VWS V14.01,2013-05-22 15:01:00,
2013-05-22 07:03:00,36.3,35.3,29.86,ENE,71,8.0,14.0,96,0.03,,---,0.92,VWS V14.01,2013-05-22 15:03:00,
2013-05-22 07:05:00,36.2,35.2,29.86,NNE,19,12.0,14.0,96,0.03,,---,0.92,VWS V14.01,2013-05-22 15:05:00,
2013-05-22 07:06:00,36.2,35.2,29.86,NE,36,9.0,14.0,96,0.03,,---,0.92,VWS V14.01,2013-05-22 15:06:00,
2013-05-22 07:08:00,36.2,35.2,29.86,NE,34,10.0,14.0,96,0.02,,---,0.92,VWS V14.01,2013-05-22 15:08:00,
2013-05-22 07:10:00,36.2,35.2,29.86,NE,51,10.0,14.0,96,0.02,,---,0.92,VWS V14.01,2013-05-22 15:10:00,
2013-05-22 07:11:00,36.2,35.2,29.86,NE,51,14.0,15.0,96,0.02,,---,0.92,VWS V14.01,2013-05-22 15:11:00,
2013-05-22 07:12:00,36.2,35.2,29.86,NE,51,8.0,18.0,96,0.02,,---,0.92,VWS V14.01,2013-05-22 15:12:00,
2013-05-22 07:13:00,36.2,35.2,29.86,NE,41,8.0,18.0,96,0.02,,---,0.92,VWS V14.01,2013-05-22 15:13:00,
2013-05-22 07:16:00,36.3,35.3,29.86,NE,42,8.0,18.0,96,0.02,,---,0.92,VWS V14.01,2013-05-22 15:16:00,
2013-05-22 07:17:00,36.3,35.3,29.86,NE,54,22.0,22.0,96,0.02,,---,0.92,VWS V14.01,2013-05-22 15:17:00,
2013-05-22 07:19:00,36.5,35.5,29.86,NE,53,14.0,22.0,96,0.02,,---,0.92,VWS V14.01,2013-05-22 15:19:00,
2013-05-22 07:21:00,36.6,35.6,29.86,NNE,30,12.0,22.0,96,0.02,,---,0.92,VWS V14.01,2013-05-22 15:21:00,
2013-05-22 07:22:00,36.7,35.7,29.86,NE,42,11.0,18.0,96,0.02,,---,0.92,VWS V14.01,2013-05-22 15:22:00,
2013-05-22 07:24:00,36.8,35.8,29.86,ENE,57,10.0,20.0,96,0.03,,---,0.93,VWS V14.01,2013-05-22 15:24:00,
2013-05-22 07:26:00,36.8,35.5,29.86,NE,36,14.0,18.0,95,0.03,,---,0.93,VWS V14.01,2013-05-22 15:26:00,
2013-05-22 07:27:00,36.8,35.5,29.86,ENE,63,13.0,18.0,95,0.03,,---,0.93,VWS V14.01,2013-05-22 15:27:00,
2013-05-22 07:29:00,36.8,35.5,29.86,NE,36,11.0,18.0,95,0.03,,---,0.93,VWS V14.01,2013-05-22 15:29:00,
2013-05-22 07:31:00,36.8,35.5,29.86,NE,38,9.0,12.0,95,0.03,,---,0.93,VWS V14.01,2013-05-22 15:31:00,
2013-05-22 07:32:00,36.8,35.5,29.86,ENE,61,10.0,12.0,95,0.03,,---,0.93,VWS V14.01,2013-05-22 15:32:00,
2013-05-22 07:34:00,36.7,35.4,29.86,ENE,68,14.0,17.0,95,0.03,,---,0.93,VWS V14.01,2013-05-22 15:34:00,
2013-05-22 07:37:00,36.8,35.5,29.86,NE,36,16.0,17.0,95,0.02,,---,0.93,VWS V14.01,2013-05-22 15:37:00,
2013-05-22 07:40:00,36.9,35.6,29.85,NE,54,12.0,19.0,95,0.02,,---,0.93,VWS V14.01,2013-05-22 15:40:00,
2013-05-22 07:42:00,36.9,35.6,29.85,NE,46,14.0,18.0,95,0.03,,---,0.94,VWS V14.01,2013-05-22 15:42:00,
2013-05-22 07:45:00,36.9,35.6,29.85,ENE,63,8.0,21.0,95,0.03,,---,0.94,VWS V14.01,2013-05-22 15:45:00,
2013-05-22 07:47:00,36.8,35.5,29.85,NE,34,13.0,16.0,95,0.03,,---,0.94,VWS V14.01,2013-05-22 15:47:00,
2013-05-22 07:48:00,36.8,35.5,29.85,NE,43,10.0,16.0,95,0.03,,---,0.94,VWS V14.01,2013-05-22 15:48:00,
2013-05-22 07:50:00,36.6,35.3,29.85,NE,39,11.0,17.0,95,0.03,,---,0.94,VWS V14.01,2013-05-22 15:50:00,
2013-05-22 07:52:00,36.5,35.2,29.85,NE,40,8.0,13.0,95,0.03,,---,0.94,VWS V14.01,2013-05-22 15:52:00,
2013-05-22 07:53:00,36.5,35.2,29.85,NNE,33,11.0,14.0,95,0.03,,---,0.94,VWS V14.01,2013-05-22 15:53:00,
2013-05-22 07:55:00,36.5,35.2,29.85,ENE,58,12.0,16.0,95,0.03,,---,0.94,VWS V14.01,2013-05-22 15:55:00,
2013-05-22 07:57:00,36.5,35.2,29.85,NNE,20,8.0,17.0,95,0.02,,---,0.94,VWS V14.01,2013-05-22 15:57:00,
2013-05-22 07:58:00,36.6,35.3,29.85,NNE,28,13.0,17.0,95,0.02,,---,0.94,VWS V14.01,2013-05-22 15:58:00,
2013-05-22 08:01:00,36.6,35.3,29.85,NNE,25,12.0,17.0,95,0.02,,---,0.94,VWS V14.01,2013-05-22 16:01:00,
2013-05-22 08:02:00,36.6,35.3,29.86,NNE,33,13.0,14.0,95,0.02,,---,0.94,VWS V14.01,2013-05-22 16:02:00,
2013-05-22 08:03:00,36.6,35.3,29.85,NE,36,11.0,17.0,95,0.02,,---,0.94,VWS V14.01,2013-05-22 16:03:00,
2013-05-22 08:06:00,36.6,35.3,29.85,NE,44,9.0,11.0,95,0.02,,---,0.94,VWS V14.01,2013-05-22 16:06:00,
2013-05-22 08:07:00,36.6,35.3,29.86,NE,47,14.0,14.0,95,0.02,,---,0.94,VWS V14.01,2013-05-22 16:07:00,
2013-05-22 08:08:00,36.6,35.3,29.86,NE,44,10.0,14.0,95,0.02,,---,0.94,VWS V14.01,2013-05-22 16:08:00,
2013-05-22 08:09:00,36.5,35.2,29.86,NE,53,12.0,14.0,95,0.02,,---,0.94,VWS V14.01,2013-05-22 16:09:00,
2013-05-22 08:11:00,36.5,35.2,29.86,NE,51,12.0,16.0,95,0.02,,---,0.94,VWS V14.01,2013-05-22 16:11:00,
2013-05-22 08:13:00,36.5,35.2,29.86,NNE,24,11.0,17.0,95,0.02,,---,0.94,VWS V14.01,2013-05-22 16:13:00,
2013-05-22 08:14:00,36.5,35.2,29.86,NNE,12,12.0,17.0,95,0.02,,---,0.94,VWS V14.01,2013-05-22 16:14:00,
2013-05-22 08:17:00,36.5,35.2,29.86,NE,52,8.0,14.0,95,0.02,,---,0.94,VWS V14.01,2013-05-22 16:17:00,
2013-05-22 08:18:00,36.5,35.2,29.86,NNE,31,9.0,16.0,95,0.02,,---,0.94,VWS V14.01,2013-05-22 16:18:00,
2013-05-22 08:19:00,36.5,35.2,29.86,NE,39,8.0,16.0,95,0.02,,---,0.94,VWS V14.01,2013-05-22 16:19:00,
2013-05-22 08:22:00,36.6,35.3,29.85,ENE,62,15.0,17.0,95,0.02,,---,0.94,VWS V14.01,2013-05-22 16:22:00,
2013-05-22 08:23:00,36.7,35.7,29.85,ENE,57,11.0,17.0,96,0.02,,---,0.94,VWS V14.01,2013-05-22 16:23:00,
2013-05-22 08:24:00,36.7,35.4,29.85,NE,53,19.0,19.0,95,0.02,,---,0.94,VWS V14.01,2013-05-22 16:24:00,
2013-05-22 08:25:00,36.7,35.4,29.85,NNE,28,10.0,19.0,95,0.02,,---,0.94,VWS V14.01,2013-05-22 16:25:00,
2013-05-22 08:27:00,36.8,35.5,29.86,NE,36,13.0,18.0,95,0.01,,---,0.94,VWS V14.01,2013-05-22 16:27:00,
2013-05-22 08:28:00,36.7,35.4,29.86,NE,38,8.0,18.0,95,0.01,,---,0.94,VWS V14.01,2013-05-22 16:28:00,
2013-05-22 08:29:00,36.7,35.4,29.86,NNE,24,9.0,18.0,95,0.01,,---,0.94,VWS V14.01,2013-05-22 16:29:00,
2013-05-22 08:30:00,36.6,35.3,29.86,NE,53,12.0,18.0,95,0.02,,---,0.95,VWS V14.01,2013-05-22 16:30:00,
2013-05-22 08:33:00,36.6,35.3,29.86,NE,42,14.0,18.0,95,0.02,,---,0.95,VWS V14.01,2013-05-22 16:33:00,
2013-05-22 08:34:00,36.6,35.3,29.86,ENE,57,13.0,18.0,95,0.02,,---,0.95,VWS V14.01,2013-05-22 16:34:00,
2013-05-22 08:35:00,36.6,35.3,29.86,ENE,61,11.0,18.0,95,0.02,,---,0.95,VWS V14.01,2013-05-22 16:35:00,
2013-05-22 08:38:00,36.5,35.2,29.86,NNE,15,12.0,13.0,95,0.02,,---,0.95,VWS V14.01,2013-05-22 16:38:00,
2013-05-22 08:39:00,36.5,35.2,29.86,NNE,28,12.0,15.0,95,0.02,,---,0.95,VWS V14.01,2013-05-22 16:39:00,
2013-05-22 08:40:00,36.5,35.2,29.86,NE,53,10.0,15.0,95,0.02,,---,0.95,VWS V14.01,2013-05-22 16:40:00,
2013-05-22 08:43:00,36.5,35.2,29.86,NE,49,12.0,18.0,95,0.01,,---,0.95,VWS V14.01,2013-05-22 16:43:00,
2013-05-22 08:44:00,36.5,35.2,29.86,ENE,70,10.0,18.0,95,0.01,,---,0.95,VWS V14.01,2013-05-22 16:44:00,
2013-05-22 08:45:00,36.6,35.3,29.86,NE,44,13.0,18.0,95,0.01,,---,0.95,VWS V14.01,2013-05-22 16:45:00,
2013-05-22 08:46:00,36.5,35.2,29.86,NE,42,12.0,18.0,95,0.01,,---,0.95,VWS V14.01,2013-05-22 16:46:00,
2013-05-22 08:48:00,36.5,35.2,29.86,NE,38,8.0,14.0,95,0.02,,---,0.96,VWS V14.01,2013-05-22 16:48:00,
2013-05-22 08:49:00,36.5,35.2,29.86,NE,45,13.0,14.0,95,0.02,,---,0.96,VWS V14.01,2013-05-22 16:49:00,
2013-05-22 08:50:00,36.5,35.2,29.85,NE,51,13.0,17.0,95,0.02,,---,0.96,VWS V14.01,2013-05-22 16:50:00,
2013-05-22 08:51:00,36.5,35.2,29.85,NNE,26,13.0,17.0,95,0.02,,---,0.96,VWS V14.01,2013-05-22 16:51:00,
2013-05-22 08:53:00,36.5,35.2,29.86,NE,39,12.0,16.0,95,0.02,,---,0.96,VWS V14.01,2013-05-22 16:53:00,
2013-05-22 08:54:00,36.5,35.2,29.86,NE,52,10.0,16.0,95,0.02,,---,0.96,VWS V14.01,2013-05-22 16:54:00,
2013-05-22 08:55:00,36.5,35.2,29.86,NNE,28,8.0,16.0,95,0.02,,---,0.96,VWS V14.01,2013-05-22 16:55:00,
2013-05-22 08:56:00,36.5,35.2,29.86,NE,46,14.0,16.0,95,0.02,,---,0.96,VWS V14.01,2013-05-22 16:56:00,
2013-05-22 08:58:00,36.5,35.2,29.86,NNE,32,9.0,13.0,95,0.02,,---,0.96,VWS V14.01,2013-05-22 16:58:00,
2013-05-22 08:59:00,36.5,35.2,29.86,ENE,67,11.0,13.0,95,0.02,,---,0.96,VWS V14.01,2013-05-22 16:59:00,
2013-05-22 09:00:00,36.5,35.2,29.86,NNE,29,10.0,18.0,95,0.02,,---,0.96,VWS V14.01,2013-05-22 17:00:00,
2013-05-22 09:01:00,36.5,35.2,29.86,NE,39,14.0,18.0,95,0.02,,---,0.96,VWS V14.01,2013-05-22 17:01:00,
2013-05-22 09:04:00,36.5,35.2,29.86,East,82,8.0,18.0,95,0.02,,---,0.96,VWS V14.01,2013-05-22 17:04:00,
2013-05-22 09:05:00,36.5,35.2,29.86,NE,49,11.0,18.0,95,0.02,,---,0.96,VWS V14.01,2013-05-22 17:05:00,
2013-05-22 09:06:00,36.5,35.2,29.86,NNE,30,13.0,18.0,95,0.02,,---,0.96,VWS V14.01,2013-05-22 17:06:00,
2013-05-22 09:09:00,36.5,35.2,29.86,NE,40,6.0,14.0,95,0.02,,---,0.96,VWS V14.01,2013-05-22 17:09:00,
2013-05-22 09:10:00,36.5,35.2,29.86,NE,53,12.0,14.0,95,0.02,,---,0.96,VWS V14.01,2013-05-22 17:10:00,
2013-05-22 09:11:00,36.5,35.2,29.86,NE,42,13.0,14.0,95,0.02,,---,0.96,VWS V14.01,2013-05-22 17:11:00,
2013-05-22 09:14:00,36.5,35.2,29.85,NNE,32,8.0,18.0,95,0.02,,---,0.96,VWS V14.01,2013-05-22 17:14:00,
2013-05-22 09:15:00,36.5,35.2,29.85,NE,47,15.0,18.0,95,0.02,,---,0.96,VWS V14.01,2013-05-22 17:15:00,
2013-05-22 09:16:00,36.6,35.3,29.86,NE,39,12.0,12.0,95,0.02,,---,0.96,VWS V14.01,2013-05-22 17:16:00,
2013-05-22 09:17:00,36.6,35.3,29.86,NE,47,12.0,12.0,95,0.02,,---,0.96,VWS V14.01,2013-05-22 17:17:00,
2013-05-22 09:20:00,36.6,35.3,29.86,ENE,65,6.0,15.0,95,0.03,,---,0.97,VWS V14.01,2013-05-22 17:20:00,
2013-05-22 09:21:00,36.6,35.3,29.86,NE,44,8.0,8.0,95,0.03,,---,0.97,VWS V14.01,2013-05-22 17:21:00,
2013-05-22 09:22:00,36.5,35.2,29.86,ENE,60,10.0,13.0,95,0.03,,---,0.97,VWS V14.01,2013-05-22 17:22:00,
2013-05-22 09:25:00,36.5,35.2,29.86,NNE,32,14.0,18.0,95,0.03,,---,0.97,VWS V14.01,2013-05-22 17:25:00,
2013-05-22 09:26:00,36.6,35.3,29.86,NE,36,10.0,18.0,95,0.03,,---,0.97,VWS V14.01,2013-05-22 17:26:00,
2013-05-22 09:27:00,36.6,35.3,29.86,NE,38,7.0,12.0,95,0.03,,---,0.97,VWS V14.01,2013-05-22 17:27:00,
2013-05-22 09:30:00,36.5,35.2,29.86,NNE,28,10.0,16.0,95,0.03,,---,0.97,VWS V14.01,2013-05-22 17:30:00,
2013-05-22 09:31:00,36.5,35.2,29.86,NE,42,8.0,16.0,95,0.03,,---,0.97,VWS V14.01,2013-05-22 17:31:00,
2013-05-22 09:32:00,36.5,35.2,29.86,NNE,19,12.0,13.0,95,0.02,,---,0.97,VWS V14.01,2013-05-22 17:32:00,
2013-05-22 09:34:00,36.5,35.5,29.86,NE,53,10.0,14.0,96,0.02,,---,0.97,VWS V14.01,2013-05-22 17:34:00,
2013-05-22 09:35:00,36.5,35.5,29.85,NNE,23,11.0,14.0,96,0.02,,---,0.97,VWS V14.01,2013-05-22 17:35:00,
2013-05-22 09:36:00,36.5,35.5,29.85,NNE,26,8.0,14.0,96,0.02,,---,0.97,VWS V14.01,2013-05-22 17:36:00,
2013-05-22 09:37:00,36.5,35.5,29.85,NE,35,10.0,16.0,96,0.02,,---,0.97,VWS V14.01,2013-05-22 17:37:00,
2013-05-22 09:40:00,36.5,35.5,29.85,NNE,21,13.0,16.0,96,0.02,,---,0.97,VWS V14.01,2013-05-22 17:40:00,
2013-05-22 09:41:00,36.5,35.5,29.85,NNE,16,10.0,16.0,96,0.02,,---,0.97,VWS V14.01,2013-05-22 17:41:00,
2013-05-22 09:42:00,36.5,35.5,29.85,NE,46,11.0,12.0,96,0.02,,---,0.97,VWS V14.01,2013-05-22 17:42:00,
2013-05-22 09:45:00,36.5,35.5,29.85,NNE,22,8.0,12.0,96,0.02,,---,0.97,VWS V14.01,2013-05-22 17:45:00,
2013-05-22 09:46:00,36.5,35.5,29.85,NE,35,9.0,12.0,96,0.02,,---,0.97,VWS V14.01,2013-05-22 17:46:00,
2013-05-22 09:47:00,36.6,35.6,29.85,NNE,26,9.0,12.0,96,0.02,,---,0.97,VWS V14.01,2013-05-22 17:47:00,
2013-05-22 09:50:00,36.6,35.6,29.85,NE,34,9.0,14.0,96,0.02,,---,0.97,VWS V14.01,2013-05-22 17:50:00,
2013-05-22 09:51:00,36.6,35.6,29.85,NE,39,10.0,15.0,96,0.02,,---,0.97,VWS V14.01,2013-05-22 17:51:00,
2013-05-22 09:52:00,36.6,35.6,29.85,NNE,16,10.0,11.0,96,0.01,,---,0.97,VWS V14.01,2013-05-22 17:52:00,
2013-05-22 09:55:00,36.7,35.7,29.86,NE,51,10.0,19.0,96,0.01,,---,0.97,VWS V14.01,2013-05-22 17:55:00,
2013-05-22 09:56:00,36.7,35.7,29.86,NE,42,7.0,19.0,96,0.01,,---,0.97,VWS V14.01,2013-05-22 17:56:00,
2013-05-22 09:57:00,36.7,35.7,29.85,NNE,31,6.0,10.0,96,0.01,,---,0.97,VWS V14.01,2013-05-22 17:57:00,
2013-05-22 09:58:00,36.7,35.7,29.85,NNE,31,10.0,15.0,96,0.01,,---,0.97,VWS V14.01,2013-05-22 17:58:00,
2013-05-22 10:00:00,36.8,35.5,29.85,NNE,28,8.0,15.0,95,0.01,,---,0.97,VWS V14.01,2013-05-22 18:00:00,
2013-05-22 10:01:00,36.8,35.5,29.85,NE,46,8.0,15.0,95,0.01,,---,0.97,VWS V14.01,2013-05-22 18:01:00,
2013-05-22 10:02:00,36.8,35.5,29.85,NNE,14,9.0,9.0,95,0.01,,---,0.97,VWS V14.01,2013-05-22 18:02:00,
2013-05-22 10:03:00,36.8,35.5,29.85,NE,55,12.0,16.0,95,0.01,,---,0.97,VWS V14.01,2013-05-22 18:03:00,
2013-05-22 10:05:00,36.8,35.5,29.85,NE,36,6.0,16.0,95,0.02,,---,0.98,VWS V14.01,2013-05-22 18:05:00,
2013-05-22 10:07:00,36.8,35.5,29.85,NE,51,8.0,10.0,95,0.02,,---,0.98,VWS V14.01,2013-05-22 18:07:00,
2013-05-22 10:08:00,36.8,35.5,29.85,NE,34,9.0,11.0,95,0.02,,---,0.98,VWS V14.01,2013-05-22 18:08:00,
2013-05-22 10:10:00,36.8,35.5,29.85,NNE,25,9.0,12.0,95,0.02,,---,0.98,VWS V14.01,2013-05-22 18:10:00,
2013-05-22 10:12:00,36.7,35.4,29.85,NE,49,5.0,8.0,95,0.02,,---,0.98,VWS V14.01,2013-05-22 18:12:00,
2013-05-22 10:13:00,36.7,35.4,29.85,NE,47,8.0,9.0,95,0.02,,---,0.98,VWS V14.01,2013-05-22 18:13:00,
2013-05-22 10:14:00,36.7,35.4,29.85,NE,42,8.0,10.0,95,0.02,,---,0.98,VWS V14.01,2013-05-22 18:14:00,
2013-05-22 10:16:00,36.7,35.4,29.85,NE,49,7.0,13.0,95,0.02,,---,0.98,VWS V14.01,2013-05-22 18:16:00,
2013-05-22 10:17:00,36.8,35.5,29.85,NE,38,7.0,10.0,95,0.02,,---,0.98,VWS V14.01,2013-05-22 18:17:00,
2013-05-22 10:18:00,36.8,35.5,29.85,NE,44,8.0,14.0,95,0.02,,---,0.98,VWS V14.01,2013-05-22 18:18:00,
2013-05-22 10:19:00,36.8,35.5,29.85,NNE,21,12.0,14.0,95,0.02,,---,0.98,VWS V14.01,2013-05-22 18:19:00,
2013-05-22 10:21:00,36.9,35.6,29.85,NNE,23,10.0,14.0,95,0.02,,---,0.98,VWS V14.01,2013-05-22 18:21:00,
2013-05-22 10:22:00,36.9,35.6,29.85,NNE,13,9.0,14.0,95,0.01,,---,0.98,VWS V14.01,2013-05-22 18:22:00,
2013-05-22 10:23:00,36.9,35.6,29.85,NNE,17,9.0,14.0,95,0.01,,---,0.98,VWS V14.01,2013-05-22 18:23:00,
2013-05-22 10:24:00,36.9,35.6,29.85,NNE,32,9.0,14.0,95,0.01,,---,0.98,VWS V14.01,2013-05-22 18:24:00,
2013-05-22 10:26:00,36.9,35.6,29.85,NE,36,12.0,12.0,95,0.01,,---,0.98,VWS V14.01,2013-05-22 18:26:00,
2013-05-22 10:28:00,36.9,35.6,29.85,NE,37,9.0,13.0,95,0.01,,---,0.98,VWS V14.01,2013-05-22 18:28:00,
2013-05-22 10:29:00,36.9,35.6,29.85,NE,44,12.0,16.0,95,0.01,,---,0.98,VWS V14.01,2013-05-22 18:29:00,
2013-05-22 10:31:00,36.9,35.6,29.85,NE,34,12.0,12.0,95,0.01,,---,0.98,VWS V14.01,2013-05-22 18:31:00,
2013-05-22 10:33:00,36.9,35.6,29.85,NE,55,8.0,15.0,95,0.01,,---,0.98,VWS V14.01,2013-05-22 18:33:00,
2013-05-22 10:34:00,36.9,35.6,29.85,ENE,61,8.0,15.0,95,0.01,,---,0.98,VWS V14.01,2013-05-22 18:34:00,
2013-05-22 10:36:00,37.0,35.7,29.85,NE,44,13.0,14.0,95,0.01,,---,0.98,VWS V14.01,2013-05-22 18:36:00,
2013-05-22 10:39:00,36.9,35.6,29.85,NE,52,13.0,16.0,95,0.01,,---,0.98,VWS V14.01,2013-05-22 18:39:00,
2013-05-22 10:42:00,37.0,35.7,29.85,NE,46,14.0,16.0,95,0.01,,---,0.98,VWS V14.01,2013-05-22 18:42:00,
2013-05-22 10:44:00,37.0,35.7,29.85,NE,44,7.0,17.0,95,0.01,,---,0.98,VWS V14.01,2013-05-22 18:44:00,
2013-05-22 10:47:00,37.0,35.7,29.85,NE,38,11.0,12.0,95,0.01,,---,0.98,VWS V14.01,2013-05-22 18:47:00,
2013-05-22 10:49:00,37.0,35.7,29.85,NE,49,10.0,15.0,95,0.01,,---,0.98,VWS V14.01,2013-05-22 18:49:00,
2013-05-22 10:52:00,37.0,35.7,29.85,NE,49,8.0,14.0,95,0.01,,---,0.98,VWS V14.01,2013-05-22 18:52:00,
2013-05-22 10:54:00,36.9,35.6,29.85,NE,51,8.0,15.0,95,0.01,,---,0.98,VWS V14.01,2013-05-22 18:54:00,
2013-05-22 10:55:00,36.9,35.6,29.85,NE,49,13.0,15.0,95,0.01,,---,0.98,VWS V14.01,2013-05-22 18:55:00,
2013-05-22 10:57:00,36.9,35.6,29.85,NE,51,11.0,13.0,95,0.01,,---,0.98,VWS V14.01,2013-05-22 18:57:00,
2013-05-22 10:59:00,37.0,35.7,29.85,NE,53,14.0,16.0,95,0.01,,---,0.98,VWS V14.01,2013-05-22 18:59:00,
2013-05-22 11:00:00,37.0,35.7,29.85,ENE,57,10.0,16.0,95,0.01,,---,0.98,VWS V14.01,2013-05-22 19:00:00,
2013-05-22 11:02:00,37.0,35.7,29.85,NE,40,11.0,17.0,95,0.01,,---,0.98,VWS V14.01,2013-05-22 19:02:00,
2013-05-22 11:04:00,37.0,35.7,29.85,NE,35,8.0,17.0,95,0.01,,---,0.98,VWS V14.01,2013-05-22 19:04:00,
2013-05-22 11:05:00,37.0,35.7,29.85,NE,47,15.0,17.0,95,0.01,,---,0.98,VWS V14.01,2013-05-22 19:05:00,
2013-05-22 11:08:00,37.0,35.7,29.85,North,5,15.0,18.0,95,0.00,,---,0.98,VWS V14.01,2013-05-22 19:08:00,
2013-05-22 11:10:00,37.0,35.7,29.85,NE,41,13.0,18.0,95,0.00,,---,0.98,VWS V14.01,2013-05-22 19:10:00,
2013-05-22 11:11:00,37.0,35.7,29.85,NNE,21,10.0,18.0,95,0.00,,---,0.98,VWS V14.01,2013-05-22 19:11:00,
2013-05-22 11:13:00,37.0,35.7,29.85,NE,36,10.0,18.0,95,0.00,,---,0.98,VWS V14.01,2013-05-22 19:13:00,
2013-05-22 11:15:00,37.0,35.7,29.85,NE,50,12.0,18.0,95,0.00,,---,0.98,VWS V14.01,2013-05-22 19:15:00,
2013-05-22 11:16:00,37.0,35.7,29.85,NNE,32,8.0,18.0,95,0.00,,---,0.98,VWS V14.01,2013-05-22 19:16:00,
2013-05-22 11:18:00,36.9,35.6,29.85,NE,44,11.0,14.0,95,0.00,,---,0.98,VWS V14.01,2013-05-22 19:18:00,
2013-05-22 11:20:00,37.0,35.7,29.85,NE,35,14.0,18.0,95,0.00,,---,0.98,VWS V14.01,2013-05-22 19:20:00,
2013-05-22 11:21:00,37.1,35.8,29.85,NE,54,8.0,18.0,95,0.00,,---,0.98,VWS V14.01,2013-05-22 19:21:00,
2013-05-22 11:23:00,37.0,35.7,29.85,NE,44,12.0,17.0,95,0.01,,---,0.99,VWS V14.01,2013-05-22 19:23:00,
2013-05-22 11:25:00,37.0,35.7,29.85,NE,47,13.0,17.0,95,0.01,,---,0.99,VWS V14.01,2013-05-22 19:25:00,
2013-05-22 11:26:00,37.0,35.7,29.85,NE,53,6.0,17.0,95,0.01,,---,0.99,VWS V14.01,2013-05-22 19:26:00,
2013-05-22 11:29:00,37.0,35.7,29.85,NE,43,13.0,17.0,95,0.01,,---,0.99,VWS V14.01,2013-05-22 19:29:00,
2013-05-22 11:30:00,37.0,35.7,29.85,ENE,66,13.0,18.0,95,0.01,,---,0.99,VWS V14.01,2013-05-22 19:30:00,
2013-05-22 11:31:00,37.0,35.7,29.85,ENE,62,11.0,18.0,95,0.01,,---,0.99,VWS V14.01,2013-05-22 19:31:00,
2013-05-22 11:34:00,37.0,35.7,29.85,ENE,62,12.0,15.0,95,0.01,,---,0.99,VWS V14.01,2013-05-22 19:34:00,
2013-05-22 11:35:00,37.0,35.7,29.85,NE,46,10.0,15.0,95,0.01,,---,0.99,VWS V14.01,2013-05-22 19:35:00,
2013-05-22 11:36:00,36.9,35.6,29.85,NNE,28,9.0,13.0,95,0.01,,---,0.99,VWS V14.01,2013-05-22 19:36:00,
2013-05-22 11:37:00,36.9,35.6,29.85,ENE,58,6.0,13.0,95,0.01,,---,0.99,VWS V14.01,2013-05-22 19:37:00,
2013-05-22 11:39:00,36.9,35.6,29.85,ENE,64,11.0,15.0,95,0.01,,---,0.99,VWS V14.01,2013-05-22 19:39:00,
2013-05-22 11:41:00,36.9,35.6,29.85,ENE,57,6.0,15.0,95,0.01,,---,0.99,VWS V14.01,2013-05-22 19:41:00,
2013-05-22 11:42:00,36.9,35.6,29.85,NE,48,14.0,14.0,95,0.01,,---,0.99,VWS V14.01,2013-05-22 19:42:00,
2013-05-22 11:45:00,36.8,35.5,29.85,NE,46,11.0,16.0,95,0.01,,---,0.99,VWS V14.01,2013-05-22 19:45:00,
2013-05-22 11:46:00,36.8,35.5,29.85,NNE,33,10.0,16.0,95,0.01,,---,0.99,VWS V14.01,2013-05-22 19:46:00,
2013-05-22 11:47:00,36.8,35.5,29.85,East,83,12.0,15.0,95,0.01,,---,0.99,VWS V14.01,2013-05-22 19:47:00,
2013-05-22 11:50:00,36.8,35.5,29.85,NE,46,10.0,16.0,95,0.01,,---,0.99,VWS V14.01,2013-05-22 19:50:00,
2013-05-22 11:51:00,36.8,35.5,29.85,ENE,65,8.0,16.0,95,0.01,,---,0.99,VWS V14.01,2013-05-22 19:51:00,
2013-05-22 11:52:00,36.8,35.5,29.85,NE,47,7.0,13.0,95,0.01,,---,0.99,VWS V14.01,2013-05-22 19:52:00,
2013-05-22 11:55:00,36.8,35.5,29.85,ENE,63,7.0,16.0,95,0.01,,---,0.99,VWS V14.01,2013-05-22 19:55:00,
2013-05-22 11:56:00,36.8,35.5,29.85,NE,53,8.0,16.0,95,0.01,,---,0.99,VWS V14.01,2013-05-22 19:56:00,
2013-05-22 11:57:00,36.8,35.5,29.85,NE,55,12.0,13.0,95,0.01,,---,0.99,VWS V14.01,2013-05-22 19:57:00,
2013-05-22 12:00:00,37.0,35.7,29.85,NE,43,8.0,14.0,95,0.01,,---,0.99,VWS V14.01,2013-05-22 20:00:00,
2013-05-22 12:01:00,37.0,35.7,29.85,NE,49,11.0,15.0,95,0.01,,---,0.99,VWS V14.01,2013-05-22 20:01:00,
2013-05-22 12:02:00,37.0,35.7,29.85,ENE,64,11.0,12.0,95,0.01,,---,0.99,VWS V14.01,2013-05-22 20:02:00,
2013-05-22 12:03:00,37.0,35.7,29.85,East,85,13.0,13.0,95,0.01,,---,0.99,VWS V14.01,2013-05-22 20:03:00,
2013-05-22 12:05:00,37.0,35.7,29.85,NE,52,13.0,16.0,95,0.01,,---,0.99,VWS V14.01,2013-05-22 20:05:00,
2013-05-22 12:06:00,37.0,35.7,29.85,NE,44,11.0,16.0,95,0.01,,---,0.99,VWS V14.01,2013-05-22 20:06:00,
2013-05-22 12:07:00,37.0,35.7,29.85,NE,51,8.0,17.0,95,0.01,,---,0.99,VWS V14.01,2013-05-22 20:07:00,
2013-05-22 12:08:00,37.0,35.7,29.85,ENE,59,7.0,17.0,95,0.01,,---,0.99,VWS V14.01,2013-05-22 20:08:00,
2013-05-22 12:10:00,37.1,35.8,29.85,ENE,65,12.0,17.0,95,0.01,,---,0.99,VWS V14.01,2013-05-22 20:10:00,
2013-05-22 12:11:00,37.1,35.8,29.85,ENE,63,8.0,17.0,95,0.01,,---,0.99,VWS V14.01,2013-05-22 20:11:00,
2013-05-22 12:12:00,37.2,35.9,29.85,East,86,12.0,15.0,95,0.01,,---,0.99,VWS V14.01,2013-05-22 20:12:00,
2013-05-22 12:13:00,37.3,36.0,29.85,NE,49,10.0,15.0,95,0.01,,---,0.99,VWS V14.01,2013-05-22 20:13:00,
2013-05-22 12:15:00,37.3,36.0,29.85,ENE,57,10.0,15.0,95,0.01,,---,0.99,VWS V14.01,2013-05-22 20:15:00,
2013-05-22 12:16:00,37.3,36.0,29.85,NE,56,8.0,15.0,95,0.01,,---,0.99,VWS V14.01,2013-05-22 20:16:00,
2013-05-22 12:17:00,37.3,36.0,29.85,NE,49,11.0,16.0,95,0.01,,---,0.99,VWS V14.01,2013-05-22 20:17:00,
2013-05-22 12:18:00,37.3,36.0,29.85,ENE,59,10.0,16.0,95,0.02,,---,1.00,VWS V14.01,2013-05-22 20:18:00,
2013-05-22 12:20:00,37.3,36.0,29.85,NE,39,9.0,16.0,95,0.02,,---,1.00,VWS V14.01,2013-05-22 20:20:00,
2013-05-22 12:21:00,37.2,35.6,29.85,ENE,74,11.0,13.0,94,0.02,,---,1.00,VWS V14.01,2013-05-22 20:21:00,
2013-05-22 12:22:00,37.1,35.5,29.85,NE,38,9.0,13.0,94,0.02,,---,1.00,VWS V14.01,2013-05-22 20:22:00,
2013-05-22 12:23:00,37.1,35.5,29.85,NE,49,8.0,13.0,94,0.02,,---,1.00,VWS V14.01,2013-05-22 20:23:00,
2013-05-22 12:25:00,37.0,35.4,29.85,NE,39,7.0,14.0,94,0.02,,---,1.00,VWS V14.01,2013-05-22 20:25:00,
2013-05-22 12:26:00,37.0,35.7,29.85,NNE,25,9.0,11.0,95,0.01,,---,1.00,VWS V14.01,2013-05-22 20:26:00,
2013-05-22 12:28:00,37.0,35.7,29.85,NNE,33,10.0,14.0,95,0.01,,---,1.00,VWS V14.01,2013-05-22 20:28:00,
2013-05-22 12:31:00,36.9,35.3,29.85,NE,36,14.0,14.0,94,0.01,,---,1.00,VWS V14.01,2013-05-22 20:31:00,
2013-05-22 12:33:00,36.9,35.3,29.85,NNE,25,8.0,13.0,94,0.01,,---,1.00,VWS V14.01,2013-05-22 20:33:00,
2013-05-22 12:34:00,36.9,35.6,29.85,NNE,29,9.0,13.0,95,0.01,,---,1.00,VWS V14.01,2013-05-22 20:34:00,
2013-05-22 12:36:00,36.9,35.3,29.85,NNE,33,16.0,16.0,94,0.01,,---,1.00,VWS V14.01,2013-05-22 20:36:00,
2013-05-22 12:37:00,36.8,35.5,29.85,NNE,13,12.0,12.0,95,0.01,,---,1.00,VWS V14.01,2013-05-22 20:37:00,
2013-05-22 12:38:00,36.8,35.5,29.84,NNE,23,12.0,13.0,95,0.01,,---,1.00,VWS V14.01,2013-05-22 20:38:00,
2013-05-22 12:39:00,36.8,35.5,29.85,NE,35,9.0,13.0,95,0.01,,---,1.00,VWS V14.01,2013-05-22 20:39:00,
2013-05-22 12:41:00,36.8,35.5,29.84,NE,38,8.0,10.0,95,0.01,,---,1.00,VWS V14.01,2013-05-22 20:41:00,
2013-05-22 12:42:00,36.8,35.5,29.84,NE,40,14.0,14.0,95,0.01,,---,1.00,VWS V14.01,2013-05-22 20:42:00,
2013-05-22 12:43:00,36.8,35.5,29.85,NE,38,7.0,14.0,95,0.01,,---,1.00,VWS V14.01,2013-05-22 20:43:00,
2013-05-22 12:44:00,36.8,35.5,29.85,NNE,28,7.0,14.0,95,0.01,,---,1.00,VWS V14.01,2013-05-22 20:44:00,
2013-05-22 12:45:00,36.8,35.5,29.85,NE,47,11.0,14.0,95,0.01,,---,1.00,VWS V14.01,2013-05-22 20:45:00,
2013-05-22 12:46:00,36.8,35.5,29.85,NE,40,10.0,13.0,95,0.01,,---,1.00,VWS V14.01,2013-05-22 20:46:00,
2013-05-22 12:47:00,36.9,35.6,29.85,NE,45,13.0,14.0,95,0.01,,---,1.00,VWS V14.01,2013-05-22 20:47:00,
2013-05-22 12:48:00,36.9,35.6,29.85,NE,44,9.0,14.0,95,0.01,,---,1.00,VWS V14.01,2013-05-22 20:48:00,
2013-05-22 12:49:00,36.9,35.6,29.85,ENE,61,10.0,14.0,95,0.01,,---,1.00,VWS V14.01,2013-05-22 20:49:00,
2013-05-22 12:50:00,36.9,35.6,29.85,NE,42,12.0,14.0,95,0.01,,---,1.00,VWS V14.01,2013-05-22 20:50:00,
2013-05-22 12:52:00,37.0,35.7,29.85,NNE,27,10.0,15.0,95,0.01,,---,1.00,VWS V14.01,2013-05-22 20:52:00,
2013-05-22 12:53:00,37.0,35.7,29.85,NNE,27,7.0,15.0,95,0.01,,---,1.00,VWS V14.01,2013-05-22 20:53:00,
2013-05-22 12:54:00,37.0,35.7,29.85,NE,34,10.0,15.0,95,0.01,,---,1.00,VWS V14.01,2013-05-22 20:54:00,
2013-05-22 12:56:00,37.0,35.7,29.85,ENE,71,7.0,15.0,95,0.01,,---,1.00,VWS V14.01,2013-05-22 20:56:00,
2013-05-22 12:57:00,37.0,35.7,29.85,NE,42,9.0,13.0,95,0.02,,---,1.01,VWS V14.01,2013-05-22 20:57:00,
2013-05-22 12:58:00,37.0,35.7,29.85,NNE,26,9.0,14.0,95,0.02,,---,1.01,VWS V14.01,2013-05-22 20:58:00,
2013-05-22 12:59:00,37.0,35.7,29.85,NNE,32,11.0,14.0,95,0.02,,---,1.01,VWS V14.01,2013-05-22 20:59:00,
2013-05-22 13:01:00,37.1,35.8,29.85,NE,38,11.0,16.0,95,0.02,,---,1.01,VWS V14.01,2013-05-22 21:01:00,
2013-05-22 13:03:00,37.2,35.9,29.85,NE,39,11.0,15.0,95,0.02,,---,1.01,VWS V14.01,2013-05-22 21:03:00,
2013-05-22 13:04:00,37.2,35.9,29.85,North,9,12.0,15.0,95,0.02,,---,1.01,VWS V14.01,2013-05-22 21:04:00,
2013-05-22 13:05:00,37.3,36.0,29.85,North,360,11.0,15.0,95,0.02,,---,1.01,VWS V14.01,2013-05-22 21:05:00,
2013-05-22 13:06:00,37.3,36.0,29.85,NE,38,5.0,15.0,95,0.02,,---,1.01,VWS V14.01,2013-05-22 21:06:00,
2013-05-22 13:08:00,37.4,36.1,29.85,NNE,31,4.0,11.0,95,0.02,,---,1.01,VWS V14.01,2013-05-22 21:08:00,
2013-05-22 13:09:00,37.4,36.1,29.85,NE,42,9.0,14.0,95,0.02,,---,1.01,VWS V14.01,2013-05-22 21:09:00,
2013-05-22 13:10:00,37.4,36.1,29.85,NNE,28,12.0,14.0,95,0.02,,---,1.01,VWS V14.01,2013-05-22 21:10:00,
2013-05-22 13:11:00,37.4,36.1,29.85,NNE,30,7.0,14.0,95,0.02,,---,1.01,VWS V14.01,2013-05-22 21:11:00,
2013-05-22 13:13:00,37.4,36.1,29.84,NNE,32,11.0,13.0,95,0.02,,---,1.01,VWS V14.01,2013-05-22 21:13:00,
2013-05-22 13:15:00,37.5,35.9,29.84,NE,45,5.0,13.0,94,0.02,,---,1.01,VWS V14.01,2013-05-22 21:15:00,
2013-05-22 13:16:00,37.5,35.9,29.84,NNE,13,8.0,10.0,94,0.02,,---,1.01,VWS V14.01,2013-05-22 21:16:00,
2013-05-22 13:18:00,37.4,35.8,29.84,NE,34,8.0,12.0,94,0.02,,---,1.01,VWS V14.01,2013-05-22 21:18:00,
2013-05-22 13:20:00,37.4,35.8,29.84,NNE,19,7.0,13.0,94,0.02,,---,1.01,VWS V14.01,2013-05-22 21:20:00,
2013-05-22 13:22:00,37.4,35.8,29.84,ENE,58,11.0,11.0,94,0.01,,---,1.01,VWS V14.01,2013-05-22 21:22:00,
2013-05-22 13:23:00,37.4,35.8,29.85,NE,39,7.0,13.0,94,0.01,,---,1.01,VWS V14.01,2013-05-22 21:23:00,
2013-05-22 13:24:00,37.4,35.8,29.85,ENE,57,10.0,13.0,94,0.01,,---,1.01,VWS V14.01,2013-05-22 21:24:00,
2013-05-22 13:25:00,37.3,35.7,29.85,NE,37,9.0,13.0,94,0.01,,---,1.01,VWS V14.01,2013-05-22 21:25:00,
2013-05-22 13:26:00,37.3,35.7,29.85,NE,46,6.0,13.0,94,0.01,,---,1.01,VWS V14.01,2013-05-22 21:26:00,
2013-05-22 13:27:00,37.3,35.7,29.85,ENE,65,8.0,12.0,94,0.01,,---,1.01,VWS V14.01,2013-05-22 21:27:00,
2013-05-22 13:28:00,37.3,35.7,29.85,NE,40,7.0,12.0,94,0.01,,---,1.01,VWS V14.01,2013-05-22 21:28:00,
2013-05-22 13:29:00,37.3,35.7,29.85,NNE,32,8.0,12.0,94,0.01,,---,1.01,VWS V14.01,2013-05-22 21:29:00,
2013-05-22 13:31:00,37.4,36.1,29.85,NE,39,8.0,12.0,95,0.01,,---,1.01,VWS V14.01,2013-05-22 21:31:00,
2013-05-22 13:32:00,37.4,36.1,29.84,NE,55,6.0,14.0,95,0.01,,---,1.01,VWS V14.01,2013-05-22 21:32:00,
2013-05-22 13:34:00,37.5,36.2,29.84,NE,49,7.0,15.0,95,0.01,,---,1.01,VWS V14.01,2013-05-22 21:34:00,
2013-05-22 13:36:00,37.5,36.2,29.84,NNE,26,13.0,15.0,95,0.01,,---,1.01,VWS V14.01,2013-05-22 21:36:00,
2013-05-22 13:37:00,37.5,35.9,29.84,NE,39,7.0,14.0,94,0.01,,---,1.01,VWS V14.01,2013-05-22 21:37:00,
2013-05-22 13:39:00,37.4,35.8,29.84,ENE,59,7.0,15.0,94,0.01,,---,1.01,VWS V14.01,2013-05-22 21:39:00,
2013-05-22 13:41:00,37.4,35.8,29.84,NE,45,8.0,15.0,94,0.01,,---,1.01,VWS V14.01,2013-05-22 21:41:00,
2013-05-22 13:42:00,37.4,35.8,29.84,NE,34,9.0,12.0,94,0.01,,---,1.01,VWS V14.01,2013-05-22 21:42:00,
2013-05-22 13:44:00,37.4,35.8,29.84,NNE,26,12.0,14.0,94,0.01,,---,1.01,VWS V14.01,2013-05-22 21:44:00,
2013-05-22 13:45:00,37.4,35.8,29.84,NE,46,11.0,16.0,94,0.01,,---,1.01,VWS V14.01,2013-05-22 21:45:00,
2013-05-22 13:46:00,37.4,35.8,29.84,NE,44,11.0,12.0,94,0.02,,---,1.02,VWS V14.01,2013-05-22 21:46:00,
2013-05-22 13:47:00,37.4,35.8,29.84,NNE,33,10.0,13.0,94,0.02,,---,1.02,VWS V14.01,2013-05-22 21:47:00,
2013-05-22 13:49:00,37.4,36.1,29.84,ENE,74,12.0,17.0,95,0.02,,---,1.02,VWS V14.01,2013-05-22 21:49:00,
2013-05-22 13:51:00,37.4,36.1,29.84,NNE,27,7.0,17.0,95,0.02,,---,1.02,VWS V14.01,2013-05-22 21:51:00,
2013-05-22 13:52:00,37.4,36.1,29.84,NNE,26,15.0,15.0,95,0.02,,---,1.02,VWS V14.01,2013-05-22 21:52:00,
2013-05-22 13:55:00,37.4,36.1,29.84,NE,46,12.0,16.0,95,0.02,,---,1.02,VWS V14.01,2013-05-22 21:55:00,
2013-05-22 13:56:00,37.4,36.1,29.84,ENE,58,10.0,16.0,95,0.02,,---,1.02,VWS V14.01,2013-05-22 21:56:00,
2013-05-22 13:57:00,37.4,36.1,29.84,NE,44,12.0,15.0,95,0.02,,---,1.02,VWS V14.01,2013-05-22 21:57:00,
2013-05-22 13:58:00,37.4,36.1,29.84,NE,38,8.0,15.0,95,0.02,,---,1.02,VWS V14.01,2013-05-22 21:58:00,
2013-05-22 14:00:00,37.5,36.2,29.84,ENE,65,12.0,15.0,95,0.02,,---,1.02,VWS V14.01,2013-05-22 22:00:00,
2013-05-22 14:01:00,37.5,36.2,29.84,ENE,74,7.0,15.0,95,0.02,,---,1.02,VWS V14.01,2013-05-22 22:01:00,
2013-05-22 14:02:00,37.5,36.2,29.85,NE,47,8.0,15.0,95,0.01,,---,1.02,VWS V14.01,2013-05-22 22:02:00,
2013-05-22 14:03:00,37.6,36.3,29.84,ENE,74,11.0,15.0,95,0.01,,---,1.02,VWS V14.01,2013-05-22 22:03:00,
2013-05-22 14:04:00,37.6,36.3,29.84,ENE,67,11.0,15.0,95,0.01,,---,1.02,VWS V14.01,2013-05-22 22:04:00,
2013-05-22 14:05:00,37.6,36.3,29.84,NE,46,7.0,15.0,95,0.01,,---,1.02,VWS V14.01,2013-05-22 22:05:00,
2013-05-22 14:06:00,37.6,36.3,29.84,ENE,58,11.0,15.0,95,0.01,,---,1.02,VWS V14.01,2013-05-22 22:06:00,
2013-05-22 14:07:00,37.6,36.0,29.85,NE,55,12.0,17.0,94,0.01,,---,1.02,VWS V14.01,2013-05-22 22:07:00,
2013-05-22 14:08:00,37.6,36.0,29.85,ENE,66,12.0,17.0,94,0.01,,---,1.02,VWS V14.01,2013-05-22 22:08:00,
2013-05-22 14:09:00,37.7,36.4,29.84,NE,34,8.0,17.0,95,0.02,,---,1.03,VWS V14.01,2013-05-22 22:09:00,
2013-05-22 14:10:00,37.7,36.4,29.84,NE,40,10.0,17.0,95,0.02,,---,1.03,VWS V14.01,2013-05-22 22:10:00,
2013-05-22 14:11:00,37.7,36.4,29.85,ENE,63,6.0,10.0,95,0.02,,---,1.03,VWS V14.01,2013-05-22 22:11:00,
2013-05-22 14:12:00,37.7,36.1,29.85,NE,40,7.0,13.0,94,0.02,,---,1.03,VWS V14.01,2013-05-22 22:12:00,
2013-05-22 14:13:00,37.7,36.1,29.85,NE,50,8.0,13.0,94,0.02,,---,1.03,VWS V14.01,2013-05-22 22:13:00,
2013-05-22 14:14:00,37.6,36.0,29.85,NE,34,7.0,14.0,94,0.02,,---,1.03,VWS V14.01,2013-05-22 22:14:00,
2013-05-22 14:16:00,37.6,36.0,29.85,NE,49,11.0,15.0,94,0.02,,---,1.03,VWS V14.01,2013-05-22 22:16:00,
2013-05-22 14:18:00,37.6,36.0,29.85,NNE,32,8.0,15.0,94,0.02,,---,1.03,VWS V14.01,2013-05-22 22:18:00,
2013-05-22 14:19:00,37.6,36.0,29.85,NE,48,8.0,15.0,94,0.02,,---,1.03,VWS V14.01,2013-05-22 22:19:00,
2013-05-22 14:21:00,37.6,36.0,29.85,NE,55,7.0,17.0,94,0.02,,---,1.03,VWS V14.01,2013-05-22 22:21:00,
2013-05-22 14:23:00,37.6,36.3,29.85,NE,44,7.0,16.0,95,0.02,,---,1.03,VWS V14.01,2013-05-22 22:23:00,
2013-05-22 14:24:00,37.7,36.1,29.85,ENE,59,8.0,16.0,94,0.02,,---,1.03,VWS V14.01,2013-05-22 22:24:00,
2013-05-22 14:26:00,37.6,36.0,29.85,ENE,67,8.0,11.0,94,0.02,,---,1.03,VWS V14.01,2013-05-22 22:26:00,
2013-05-22 14:27:00,37.6,36.0,29.85,NE,47,13.0,13.0,94,0.02,,---,1.03,VWS V14.01,2013-05-22 22:27:00,
2013-05-22 14:28:00,37.6,36.0,29.85,NE,56,6.0,13.0,94,0.02,,---,1.03,VWS V14.01,2013-05-22 22:28:00,
2013-05-22 14:29:00,37.6,36.0,29.85,NNE,32,11.0,14.0,94,0.03,,---,1.04,VWS V14.01,2013-05-22 22:29:00,
2013-05-22 14:32:00,37.7,36.1,29.85,NE,53,11.0,15.0,94,0.03,,---,1.04,VWS V14.01,2013-05-22 22:32:00,
2013-05-22 14:33:00,37.7,36.1,29.85,NE,40,7.0,15.0,94,0.03,,---,1.04,VWS V14.01,2013-05-22 22:33:00,
2013-05-22 14:34:00,37.7,36.1,29.85,NE,44,10.0,15.0,94,0.03,,---,1.04,VWS V14.01,2013-05-22 22:34:00,
2013-05-22 14:35:00,37.6,36.0,29.84,ENE,59,10.0,15.0,94,0.03,,---,1.04,VWS V14.01,2013-05-22 22:35:00,
2013-05-22 14:37:00,37.6,36.0,29.85,NE,50,8.0,12.0,94,0.03,,---,1.04,VWS V14.01,2013-05-22 22:37:00,
2013-05-22 14:38:00,37.5,35.9,29.85,NE,34,11.0,12.0,94,0.03,,---,1.04,VWS V14.01,2013-05-22 22:38:00,
2013-05-22 14:39:00,37.5,35.9,29.85,NE,44,8.0,12.0,94,0.03,,---,1.04,VWS V14.01,2013-05-22 22:39:00,
2013-05-22 14:40:00,37.4,35.8,29.85,NE,46,13.0,13.0,94,0.03,,---,1.04,VWS V14.01,2013-05-22 22:40:00,
2013-05-22 14:42:00,37.4,35.8,29.85,ENE,63,11.0,14.0,94,0.03,,---,1.04,VWS V14.01,2013-05-22 22:42:00,
2013-05-22 14:43:00,37.4,35.8,29.85,ENE,58,15.0,16.0,94,0.03,,---,1.04,VWS V14.01,2013-05-22 22:43:00,
2013-05-22 14:44:00,37.3,35.7,29.85,NE,51,13.0,16.0,94,0.03,,---,1.04,VWS V14.01,2013-05-22 22:44:00,
2013-05-22 14:45:00,37.3,35.7,29.85,NNE,19,12.0,16.0,94,0.03,,---,1.04,VWS V14.01,2013-05-22 22:45:00,
2013-05-22 14:47:00,37.2,35.6,29.84,NE,38,9.0,12.0,94,0.02,,---,1.04,VWS V14.01,2013-05-22 22:47:00,
2013-05-22 14:48:00,37.1,35.5,29.84,NE,53,6.0,13.0,94,0.02,,---,1.04,VWS V14.01,2013-05-22 22:48:00,
2013-05-22 14:49:00,37.1,35.5,29.85,NNE,31,8.0,13.0,94,0.02,,---,1.04,VWS V14.01,2013-05-22 22:49:00,
2013-05-22 14:50:00,37.1,35.5,29.85,ENE,63,10.0,13.0,94,0.02,,---,1.04,VWS V14.01,2013-05-22 22:50:00,
2013-05-22 14:52:00,37.1,35.5,29.85,ENE,71,12.0,14.0,94,0.02,,---,1.04,VWS V14.01,2013-05-22 22:52:00,
2013-05-22 14:53:00,37.1,35.5,29.85,NE,38,11.0,17.0,94,0.02,,---,1.04,VWS V14.01,2013-05-22 22:53:00,
2013-05-22 14:54:00,37.2,35.9,29.85,ENE,63,7.0,17.0,95,0.02,,---,1.04,VWS V14.01,2013-05-22 22:54:00,
2013-05-22 14:55:00,37.2,35.9,29.85,NE,45,12.0,17.0,95,0.02,,---,1.04,VWS V14.01,2013-05-22 22:55:00,
2013-05-22 14:58:00,37.2,35.9,29.85,NE,51,10.0,14.0,95,0.02,,---,1.04,VWS V14.01,2013-05-22 22:58:00,
2013-05-22 14:59:00,37.2,35.9,29.85,NNE,28,8.0,14.0,95,0.03,,---,1.05,VWS V14.01,2013-05-22 22:59:00,
2013-05-22 15:00:00,37.2,35.9,29.85,NE,53,11.0,14.0,95,0.03,,---,1.05,VWS V14.01,2013-05-22 23:00:00,
2013-05-22 15:03:00,37.3,36.0,29.85,NE,51,8.0,12.0,95,0.03,,---,1.05,VWS V14.01,2013-05-22 23:03:00,
2013-05-22 15:04:00,37.4,36.1,29.85,NE,42,13.0,14.0,95,0.03,,---,1.05,VWS V14.01,2013-05-22 23:04:00,
2013-05-22 15:05:00,37.4,36.1,29.85,NE,41,10.0,14.0,95,0.03,,---,1.05,VWS V14.01,2013-05-22 23:05:00,
2013-05-22 15:06:00,37.4,36.1,29.85,ENE,67,10.0,14.0,95,0.03,,---,1.05,VWS V14.01,2013-05-22 23:06:00,
2013-05-22 15:08:00,37.5,36.2,29.85,NE,55,11.0,15.0,95,0.03,,---,1.05,VWS V14.01,2013-05-22 23:08:00,
2013-05-22 15:09:00,37.5,36.2,29.85,ENE,78,14.0,16.0,95,0.03,,---,1.05,VWS V14.01,2013-05-22 23:09:00,
2013-05-22 15:11:00,37.5,36.2,29.85,NE,50,13.0,16.0,95,0.03,,---,1.05,VWS V14.01,2013-05-22 23:11:00,
2013-05-22 15:13:00,37.7,36.4,29.85,NE,34,13.0,13.0,95,0.02,,---,1.05,VWS V14.01,2013-05-22 23:13:00,
2013-05-22 15:14:00,37.8,36.5,29.85,East,81,11.0,14.0,95,0.02,,---,1.05,VWS V14.01,2013-05-22 23:14:00,
2013-05-22 15:16:00,37.8,36.5,29.85,ENE,62,12.0,17.0,95,0.03,,---,1.06,VWS V14.01,2013-05-22 23:16:00,
2013-05-22 15:19:00,38.0,36.7,29.85,ENE,57,10.0,14.0,95,0.03,,---,1.06,VWS V14.01,2013-05-22 23:19:00,
2013-05-22 15:21:00,38.0,36.4,29.85,ENE,61,10.0,15.0,94,0.03,,---,1.06,VWS V14.01,2013-05-22 23:21:00,
2013-05-22 15:24:00,38.1,36.5,29.85,ENE,65,14.0,17.0,94,0.03,,---,1.06,VWS V14.01,2013-05-22 23:24:00,
2013-05-22 15:25:00,38.2,36.9,29.85,NE,55,10.0,17.0,95,0.03,,---,1.06,VWS V14.01,2013-05-22 23:25:00,
2013-05-22 15:26:00,38.2,36.6,29.85,ENE,74,11.0,17.0,94,0.03,,---,1.06,VWS V14.01,2013-05-22 23:26:00,
2013-05-22 15:27:00,38.2,36.6,29.85,NE,43,10.0,13.0,94,0.03,,---,1.06,VWS V14.01,2013-05-22 23:27:00,
2013-05-22 15:30:00,38.1,36.5,29.85,NE,51,12.0,18.0,94,0.03,,---,1.06,VWS V14.01,2013-05-22 23:30:00,
2013-05-22 15:31:00,38.1,36.5,29.85,ENE,65,7.0,18.0,94,0.03,,---,1.06,VWS V14.01,2013-05-22 23:31:00,
2013-05-22 15:32:00,38.1,36.5,29.85,ENE,57,14.0,14.0,94,0.02,,---,1.06,VWS V14.01,2013-05-22 23:32:00,
2013-05-22 15:35:00,38.1,36.5,29.85,ENE,61,15.0,15.0,94,0.02,,---,1.06,VWS V14.01,2013-05-22 23:35:00,
2013-05-22 15:37:00,38.1,36.5,29.85,NE,55,12.0,12.0,94,0.02,,---,1.06,VWS V14.01,2013-05-22 23:37:00,
2013-05-22 15:38:00,38.0,36.4,29.85,ENE,69,11.0,13.0,94,0.02,,---,1.06,VWS V14.01,2013-05-22 23:38:00,
2013-05-22 15:40:00,38.0,36.4,29.85,ENE,66,12.0,14.0,94,0.02,,---,1.06,VWS V14.01,2013-05-22 23:40:00,
2013-05-22 15:42:00,38.0,36.4,29.85,ENE,61,12.0,15.0,94,0.03,,---,1.07,VWS V14.01,2013-05-22 23:42:00,
2013-05-22 15:44:00,38.1,36.5,29.85,ENE,60,11.0,15.0,94,0.03,,---,1.07,VWS V14.01,2013-05-22 23:44:00,
2013-05-22 16:14:00,38.0,36.4,29.85,ENE,71,14.0,16.0,94,0.05,,---,1.10,VWS V14.01,2013-05-23 00:14:00,
2013-05-22 16:15:00,38.0,36.4,29.85,ENE,71,13.0,16.0,94,0.05,,---,1.10,VWS V14.01,2013-05-23 00:15:00,
2013-05-22 16:19:00,37.8,36.2,29.85,NE,46,8.0,16.0,94,0.04,,---,1.10,VWS V14.01,2013-05-23 00:19:00,
2013-05-22 16:20:00,37.8,36.2,29.85,NE,46,8.0,16.0,94,0.04,,---,1.10,VWS V14.01,2013-05-23 00:20:00,
2013-05-22 16:21:00,37.8,36.5,29.85,ENE,61,10.0,17.0,95,0.04,,---,1.10,VWS V14.01,2013-05-23 00:21:00,
2013-05-22 16:24:00,37.7,36.1,29.86,ENE,63,15.0,18.0,94,0.04,,---,1.10,VWS V14.01,2013-05-23 00:24:00,
2013-05-22 16:25:00,37.7,36.1,29.86,ENE,57,11.0,18.0,94,0.04,,---,1.10,VWS V14.01,2013-05-23 00:25:00,
2013-05-22 16:26:00,37.7,36.1,29.85,ENE,73,12.0,18.0,94,0.04,,---,1.10,VWS V14.01,2013-05-23 00:26:00,
2013-05-22 16:29:00,37.7,36.1,29.85,ENE,63,10.0,15.0,94,0.04,,---,1.10,VWS V14.01,2013-05-23 00:29:00,
2013-05-22 16:30:00,37.7,36.1,29.85,ENE,71,15.0,19.0,94,0.04,,---,1.10,VWS V14.01,2013-05-23 00:30:00,
2013-05-22 16:31:00,37.6,36.3,29.85,ENE,61,11.0,19.0,95,0.04,,---,1.10,VWS V14.01,2013-05-23 00:31:00,
2013-05-22 16:34:00,37.7,36.4,29.85,NE,54,14.0,17.0,95,0.04,,---,1.10,VWS V14.01,2013-05-23 00:34:00,
2013-05-22 16:35:00,37.7,36.4,29.85,ENE,70,11.0,17.0,95,0.04,,---,1.10,VWS V14.01,2013-05-23 00:35:00,
2013-05-22 16:36:00,37.7,36.4,29.85,NE,51,11.0,17.0,95,0.04,,---,1.10,VWS V14.01,2013-05-23 00:36:00,
2013-05-22 16:40:00,37.7,36.4,29.85,ENE,70,8.0,17.0,95,0.04,,---,1.10,VWS V14.01,2013-05-23 00:40:00,
2013-05-22 16:41:00,37.8,36.5,29.85,ENE,65,12.0,17.0,95,0.05,,---,1.11,VWS V14.01,2013-05-23 00:41:00,
2013-05-22 16:45:00,37.7,36.4,29.85,ENE,76,11.0,15.0,95,0.04,,---,1.11,VWS V14.01,2013-05-23 00:45:00,
2013-05-22 16:46:00,37.7,36.4,29.85,ENE,71,11.0,15.0,95,0.04,,---,1.11,VWS V14.01,2013-05-23 00:46:00,
2013-05-22 16:50:00,37.6,36.0,29.85,NE,53,11.0,14.0,94,0.04,,---,1.11,VWS V14.01,2013-05-23 00:50:00,
2013-05-22 16:51:00,37.5,36.2,29.85,ENE,63,13.0,15.0,95,0.04,,---,1.11,VWS V14.01,2013-05-23 00:51:00,
2013-05-22 16:52:00,37.5,36.2,29.85,NE,53,10.0,12.0,95,0.04,,---,1.11,VWS V14.01,2013-05-23 00:52:00,
2013-05-22 16:56:00,37.5,36.2,29.85,NE,49,12.0,15.0,95,0.04,,---,1.11,VWS V14.01,2013-05-23 00:56:00,
2013-05-22 16:57:00,37.5,36.2,29.85,ENE,67,7.0,11.0,95,0.03,,---,1.11,VWS V14.01,2013-05-23 00:57:00,
2013-05-22 17:01:00,37.4,36.1,29.85,ENE,71,8.0,13.0,95,0.03,,---,1.11,VWS V14.01,2013-05-23 01:01:00,
2013-05-22 17:02:00,37.4,36.1,29.85,ENE,69,7.0,10.0,95,0.03,,---,1.11,VWS V14.01,2013-05-23 01:02:00,
2013-05-22 17:03:00,37.4,36.1,29.85,ENE,59,12.0,12.0,95,0.03,,---,1.11,VWS V14.01,2013-05-23 01:03:00,
2013-05-22 17:06:00,37.4,36.1,29.85,ENE,58,8.0,10.0,95,0.02,,---,1.11,VWS V14.01,2013-05-23 01:06:00,
2013-05-22 17:07:00,37.4,36.1,29.85,ENE,60,12.0,14.0,95,0.02,,---,1.11,VWS V14.01,2013-05-23 01:07:00,
2013-05-22 17:08:00,37.4,36.1,29.85,ENE,57,10.0,14.0,95,0.02,,---,1.11,VWS V14.01,2013-05-23 01:08:00,
2013-05-22 17:09:00,37.4,36.1,29.85,NE,50,12.0,14.0,95,0.02,,---,1.11,VWS V14.01,2013-05-23 01:09:00,
2013-05-22 17:11:00,37.3,36.0,29.85,ENE,65,14.0,15.0,95,0.01,,---,1.11,VWS V14.01,2013-05-23 01:11:00,
2013-05-22 17:12:00,37.4,36.1,29.85,ENE,59,7.0,15.0,95,0.01,,---,1.11,VWS V14.01,2013-05-23 01:12:00,
2013-05-22 17:13:00,37.4,36.1,29.85,ENE,68,13.0,18.0,95,0.01,,---,1.11,VWS V14.01,2013-05-23 01:13:00,
2013-05-22 17:14:00,37.4,36.1,29.85,NE,54,12.0,18.0,95,0.01,,---,1.11,VWS V14.01,2013-05-23 01:14:00,
2013-05-22 17:16:00,37.4,36.1,29.86,NE,50,8.0,13.0,95,0.01,,---,1.11,VWS V14.01,2013-05-23 01:16:00,
2013-05-22 17:17:00,37.4,36.1,29.86,ENE,73,10.0,13.0,95,0.01,,---,1.11,VWS V14.01,2013-05-23 01:17:00,
2013-05-22 17:18:00,37.4,36.1,29.86,ENE,65,6.0,14.0,95,0.01,,---,1.11,VWS V14.01,2013-05-23 01:18:00,
2013-05-22 17:19:00,37.4,36.1,29.86,NE,49,12.0,14.0,95,0.01,,---,1.11,VWS V14.01,2013-05-23 01:19:00,
2013-05-22 17:22:00,37.4,36.1,29.86,ENE,71,6.0,10.0,95,0.01,,---,1.11,VWS V14.01,2013-05-23 01:22:00,
2013-05-22 17:23:00,37.4,36.1,29.86,ENE,69,8.0,14.0,95,0.01,,---,1.11,VWS V14.01,2013-05-23 01:23:00,
2013-05-22 17:24:00,37.3,36.0,29.86,ENE,65,6.0,14.0,95,0.01,,---,1.11,VWS V14.01,2013-05-23 01:24:00,
2013-05-22 17:27:00,37.2,35.9,29.86,ENE,74,6.0,12.0,95,0.01,,---,1.11,VWS V14.01,2013-05-23 01:27:00,
2013-05-22 17:28:00,37.2,35.9,29.86,NE,56,7.0,13.0,95,0.01,,---,1.11,VWS V14.01,2013-05-23 01:28:00,
2013-05-22 17:29:00,37.2,35.9,29.86,ENE,59,7.0,13.0,95,0.01,,---,1.11,VWS V14.01,2013-05-23 01:29:00,
2013-05-22 17:32:00,37.1,35.8,29.86,ENE,63,11.0,14.0,95,0.01,,---,1.11,VWS V14.01,2013-05-23 01:32:00,
2013-05-22 17:33:00,37.1,35.8,29.86,ENE,76,8.0,14.0,95,0.01,,---,1.11,VWS V14.01,2013-05-23 01:33:00,
2013-05-22 17:34:00,37.1,35.8,29.86,ENE,63,8.0,14.0,95,0.01,,---,1.11,VWS V14.01,2013-05-23 01:34:00,
2013-05-22 17:42:00,37.0,35.7,29.86,ENE,68,10.0,13.0,95,0.01,,---,1.11,VWS V14.01,2013-05-23 01:42:00,
2013-05-22 17:44:00,36.9,35.6,29.86,ENE,74,6.0,17.0,95,0.00,,---,1.11,VWS V14.01,2013-05-23 01:44:00,
2013-05-22 17:47:00,36.7,35.4,29.86,ENE,74,6.0,12.0,95,0.00,,---,1.11,VWS V14.01,2013-05-23 01:47:00,
2013-05-22 17:48:00,36.6,35.3,29.86,ENE,58,8.0,14.0,95,0.00,,---,1.11,VWS V14.01,2013-05-23 01:48:00,
2013-05-22 17:49:00,36.6,35.3,29.86,ENE,62,11.0,14.0,95,0.00,,---,1.11,VWS V14.01,2013-05-23 01:49:00,
2013-05-22 17:54:00,36.6,35.3,29.86,ENE,67,11.0,14.0,95,0.00,,---,1.11,VWS V14.01,2013-05-23 01:54:00,
2013-05-22 17:55:00,36.6,35.3,29.86,ENE,77,7.0,14.0,95,0.00,,---,1.11,VWS V14.01,2013-05-23 01:55:00,
2013-05-22 18:00:00,36.6,35.3,29.86,ENE,59,10.0,14.0,95,0.00,,---,1.11,VWS V14.01,2013-05-23 02:00:00,
2013-05-22 18:05:00,36.5,35.2,29.86,ENE,62,13.0,13.0,95,0.00,,---,1.11,VWS V14.01,2013-05-23 02:05:00,
2013-05-22 18:06:00,36.5,35.5,29.86,ENE,66,8.0,13.0,96,0.00,,---,1.11,VWS V14.01,2013-05-23 02:06:00,
2013-05-22 18:10:00,36.6,35.6,29.86,ENE,59,8.0,13.0,96,0.00,,---,1.11,VWS V14.01,2013-05-23 02:10:00,
2013-05-22 18:11:00,36.7,35.7,29.86,ENE,67,14.0,14.0,96,0.00,,---,1.11,VWS V14.01,2013-05-23 02:11:00,
2013-05-22 18:12:00,36.7,35.7,29.86,ENE,63,14.0,14.0,96,0.00,,---,1.11,VWS V14.01,2013-05-23 02:12:00,
2013-05-22 18:15:00,36.8,35.8,29.86,ENE,73,7.0,14.0,96,0.00,,---,1.11,VWS V14.01,2013-05-23 02:15:00,
2013-05-22 18:16:00,36.9,35.9,29.86,ENE,71,7.0,14.0,96,0.00,,---,1.11,VWS V14.01,2013-05-23 02:16:00,
2013-05-22 18:17:00,37.0,36.0,29.86,ENE,67,11.0,12.0,96,0.00,,---,1.11,VWS V14.01,2013-05-23 02:17:00,
2013-05-22 18:20:00,37.0,36.0,29.87,ENE,69,7.0,12.0,96,0.00,,---,1.11,VWS V14.01,2013-05-23 02:20:00,
2013-05-22 18:21:00,37.1,36.1,29.87,NE,44,11.0,12.0,96,0.00,,---,1.11,VWS V14.01,2013-05-23 02:21:00,
2013-05-22 18:22:00,37.0,36.0,29.86,ENE,74,12.0,14.0,96,0.00,,---,1.11,VWS V14.01,2013-05-23 02:22:00,
2013-05-22 18:25:00,36.9,35.6,29.87,ENE,78,8.0,14.0,95,0.00,,---,1.11,VWS V14.01,2013-05-23 02:25:00,
2013-05-22 18:26:00,36.9,35.6,29.87,East,86,8.0,14.0,95,0.00,,---,1.11,VWS V14.01,2013-05-23 02:26:00,
2013-05-22 18:27:00,36.9,35.6,29.87,East,80,7.0,10.0,95,0.00,,---,1.11,VWS V14.01,2013-05-23 02:27:00,
2013-05-22 18:30:00,36.9,35.6,29.87,ENE,72,8.0,12.0,95,0.00,,---,1.11,VWS V14.01,2013-05-23 02:30:00,
2013-05-22 18:31:00,36.9,35.6,29.87,ENE,73,11.0,12.0,95,0.00,,---,1.11,VWS V14.01,2013-05-23 02:31:00,
2013-05-22 18:32:00,36.9,35.6,29.87,ENE,71,6.0,12.0,95,0.00,,---,1.11,VWS V14.01,2013-05-23 02:32:00,
2013-05-22 18:36:00,36.9,35.6,29.87,ENE,73,6.0,12.0,95,0.00,,---,1.11,VWS V14.01,2013-05-23 02:36:00,
2013-05-22 18:37:00,36.9,35.6,29.87,ENE,63,6.0,10.0,95,0.00,,---,1.11,VWS V14.01,2013-05-23 02:37:00,
2013-05-22 18:41:00,37.0,36.0,29.87,East,92,7.0,11.0,96,0.00,,---,1.11,VWS V14.01,2013-05-23 02:41:00,
2013-05-22 18:42:00,37.0,36.0,29.87,ENE,61,7.0,8.0,96,0.00,,---,1.11,VWS V14.01,2013-05-23 02:42:00,
2013-05-22 18:43:00,37.0,36.0,29.87,ENE,66,5.0,11.0,96,0.00,,---,1.11,VWS V14.01,2013-05-23 02:43:00,
2013-05-22 18:46:00,37.0,36.0,29.87,ENE,72,8.0,12.0,96,0.00,,---,1.11,VWS V14.01,2013-05-23 02:46:00,
2013-05-22 18:47:00,37.0,36.0,29.87,ENE,58,7.0,12.0,96,0.00,,---,1.11,VWS V14.01,2013-05-23 02:47:00,
2013-05-22 18:48:00,37.0,35.7,29.87,ENE,64,8.0,15.0,95,0.00,,---,1.11,VWS V14.01,2013-05-23 02:48:00,
2013-05-22 18:52:00,36.8,35.5,29.87,ENE,72,11.0,11.0,95,0.00,,---,1.11,VWS V14.01,2013-05-23 02:52:00,
2013-05-22 18:53:00,36.7,35.4,29.87,ENE,63,8.0,12.0,95,0.00,,---,1.11,VWS V14.01,2013-05-23 02:53:00,
2013-05-22 18:57:00,36.6,35.3,29.87,ENE,60,5.0,8.0,95,0.00,,---,1.11,VWS V14.01,2013-05-23 02:57:00,
2013-05-22 18:58:00,36.5,35.2,29.87,East,83,8.0,12.0,95,0.00,,---,1.11,VWS V14.01,2013-05-23 02:58:00,
2013-05-22 18:59:00,36.5,35.2,29.87,ENE,71,8.0,12.0,95,0.00,,---,1.11,VWS V14.01,2013-05-23 02:59:00,
2013-05-22 19:02:00,36.4,35.4,29.87,ENE,76,6.0,11.0,96,0.00,,---,1.11,VWS V14.01,2013-05-23 03:02:00,
2013-05-22 19:03:00,36.4,35.4,29.87,ENE,71,7.0,12.0,96,0.00,,---,1.11,VWS V14.01,2013-05-23 03:03:00,
2013-05-22 19:04:00,36.4,35.4,29.88,ENE,73,11.0,12.0,96,0.00,,---,1.11,VWS V14.01,2013-05-23 03:04:00,
2013-05-22 19:07:00,36.3,35.3,29.88,East,87,5.0,8.0,96,0.00,,---,1.11,VWS V14.01,2013-05-23 03:07:00,
2013-05-22 19:08:00,36.3,35.3,29.87,ENE,76,6.0,8.0,96,0.00,,---,1.11,VWS V14.01,2013-05-23 03:08:00,
2013-05-22 19:09:00,36.3,35.3,29.87,East,95,7.0,8.0,96,0.00,,---,1.11,VWS V14.01,2013-05-23 03:09:00,
2013-05-22 19:12:00,36.4,35.4,29.87,ESE,107,5.0,8.0,96,0.00,,---,1.11,VWS V14.01,2013-05-23 03:12:00,
2013-05-22 19:13:00,36.4,35.4,29.87,East,90,6.0,8.0,96,0.00,,---,1.11,VWS V14.01,2013-05-23 03:13:00,
2013-05-22 19:14:00,36.4,35.4,29.88,East,89,4.0,8.0,96,0.00,,---,1.11,VWS V14.01,2013-05-23 03:14:00,
2013-05-22 19:17:00,36.4,35.4,29.87,East,99,6.0,8.0,96,0.00,,---,1.11,VWS V14.01,2013-05-23 03:17:00,
2013-05-22 19:18:00,36.4,35.4,29.88,East,99,9.0,9.0,96,0.00,,---,1.11,VWS V14.01,2013-05-23 03:18:00,
2013-05-22 19:19:00,36.4,35.4,29.88,East,101,8.0,9.0,96,0.00,,---,1.11,VWS V14.01,2013-05-23 03:19:00,
2013-05-22 19:20:00,36.4,35.4,29.88,East,98,5.0,9.0,96,0.00,,---,1.11,VWS V14.01,2013-05-23 03:20:00,
2013-05-22 19:22:00,36.3,35.3,29.88,East,91,5.0,6.0,96,0.00,,---,1.11,VWS V14.01,2013-05-23 03:22:00,
2013-05-22 19:24:00,36.2,35.2,29.88,East,81,8.0,10.0,96,0.00,,---,1.11,VWS V14.01,2013-05-23 03:24:00,
2013-05-22 19:25:00,36.2,35.2,29.88,ENE,77,6.0,11.0,96,0.00,,---,1.11,VWS V14.01,2013-05-23 03:25:00,
2013-05-22 19:27:00,36.1,35.1,29.88,East,92,5.0,11.0,96,0.00,,---,1.11,VWS V14.01,2013-05-23 03:27:00,
2013-05-22 19:29:00,36.0,35.0,29.88,East,99,12.0,12.0,96,0.00,,---,1.11,VWS V14.01,2013-05-23 03:29:00,
2013-05-22 19:30:00,36.0,35.0,29.88,East,84,6.0,12.0,96,0.00,,---,1.11,VWS V14.01,2013-05-23 03:30:00,
2013-05-22 19:32:00,36.0,35.0,29.88,East,83,4.0,9.0,96,0.00,,---,1.11,VWS V14.01,2013-05-23 03:32:00,
2013-05-22 19:34:00,35.9,34.9,29.88,East,88,8.0,11.0,96,0.00,,---,1.11,VWS V14.01,2013-05-23 03:34:00,
2013-05-22 19:35:00,35.9,34.9,29.88,ENE,70,10.0,12.0,96,0.00,,---,1.11,VWS V14.01,2013-05-23 03:35:00,
2013-05-22 19:36:00,35.9,34.9,29.88,East,84,10.0,12.0,96,0.00,,---,1.11,VWS V14.01,2013-05-23 03:36:00,
2013-05-22 19:38:00,35.9,34.9,29.88,ENE,69,7.0,11.0,96,0.00,,---,1.11,VWS V14.01,2013-05-23 03:38:00,
2013-05-22 19:39:00,35.9,34.9,29.88,ENE,78,7.0,11.0,96,0.00,,---,1.11,VWS V14.01,2013-05-23 03:39:00,
2013-05-22 19:40:00,35.9,34.9,29.88,East,86,4.0,11.0,96,0.00,,---,1.11,VWS V14.01,2013-05-23 03:40:00,
2013-05-22 19:41:00,35.9,34.9,29.88,East,82,10.0,11.0,96,0.00,,---,1.11,VWS V14.01,2013-05-23 03:41:00,
2013-05-22 19:43:00,35.9,34.9,29.88,East,80,4.0,10.0,96,0.00,,---,1.11,VWS V14.01,2013-05-23 03:43:00,
2013-05-22 19:44:00,35.9,34.9,29.88,East,88,7.0,10.0,96,0.00,,---,1.11,VWS V14.01,2013-05-23 03:44:00,
2013-05-22 19:45:00,35.9,34.9,29.88,ENE,77,7.0,10.0,96,0.00,,---,1.11,VWS V14.01,2013-05-23 03:45:00,
2013-05-22 19:46:00,35.9,34.9,29.88,ENE,74,5.0,10.0,96,0.00,,---,1.11,VWS V14.01,2013-05-23 03:46:00,
2013-05-22 19:48:00,35.9,34.9,29.88,NE,55,8.0,11.0,96,0.00,,---,1.11,VWS V14.01,2013-05-23 03:48:00,
2013-05-22 19:50:00,36.0,35.0,29.88,ENE,66,7.0,12.0,96,0.00,,---,1.11,VWS V14.01,2013-05-23 03:50:00,
2013-05-22 19:51:00,36.0,35.0,29.88,ENE,68,7.0,12.0,96,0.00,,---,1.11,VWS V14.01,2013-05-23 03:51:00,
2013-05-22 19:53:00,36.0,35.0,29.88,ENE,65,6.0,11.0,96,0.00,,---,1.11,VWS V14.01,2013-05-23 03:53:00,
2013-05-22 19:55:00,36.1,35.1,29.88,ENE,71,8.0,11.0,96,0.00,,---,1.11,VWS V14.01,2013-05-23 03:55:00,
2013-05-22 19:56:00,36.1,35.1,29.88,East,84,3.0,11.0,96,0.00,,---,1.11,VWS V14.01,2013-05-23 03:56:00,
2013-05-22 19:58:00,36.2,35.2,29.88,East,84,6.0,12.0,96,0.00,,---,1.11,VWS V14.01,2013-05-23 03:58:00,
2013-05-22 20:00:00,36.2,35.2,29.88,ENE,67,8.0,12.0,96,0.00,,---,1.11,VWS V14.01,2013-05-23 04:00:00,
2013-05-22 20:01:00,36.2,35.2,29.88,East,79,6.0,12.0,96,0.00,,---,1.11,VWS V14.01,2013-05-23 04:01:00,
2013-05-22 20:06:00,36.3,35.3,29.88,ENE,64,6.0,12.0,96,0.00,,---,1.11,VWS V14.01,2013-05-23 04:06:00,
2013-05-22 20:11:00,36.3,35.3,29.88,East,87,7.0,9.0,96,0.00,,---,1.11,VWS V14.01,2013-05-23 04:11:00,
2013-05-22 20:16:00,36.2,34.9,29.89,East,89,4.0,8.0,95,0.00,,---,1.11,VWS V14.01,2013-05-23 04:16:00,
2013-05-22 20:17:00,36.2,34.9,29.89,East,98,6.0,8.0,95,0.00,,---,1.11,VWS V14.01,2013-05-23 04:17:00,
2013-05-22 20:21:00,36.4,35.1,29.89,East,101,6.0,9.0,95,0.00,,---,1.11,VWS V14.01,2013-05-23 04:21:00,
2013-05-22 20:22:00,36.4,35.1,29.89,East,98,6.0,6.0,95,0.00,,---,1.11,VWS V14.01,2013-05-23 04:22:00,
2013-05-22 20:26:00,36.4,35.1,29.89,SE,124,8.0,13.0,95,0.00,,---,1.11,VWS V14.01,2013-05-23 04:26:00,
2013-05-22 20:27:00,36.4,35.1,29.88,East,98,6.0,12.0,95,0.00,,---,1.11,VWS V14.01,2013-05-23 04:27:00,
2013-05-22 20:28:00,36.4,35.1,29.88,ESE,105,8.0,12.0,95,0.00,,---,1.11,VWS V14.01,2013-05-23 04:28:00,
2013-05-22 20:32:00,36.4,35.1,29.89,East,101,7.0,9.0,95,0.00,,---,1.11,VWS V14.01,2013-05-23 04:32:00,
2013-05-22 20:33:00,36.4,35.1,29.89,East,92,7.0,9.0,95,0.00,,---,1.11,VWS V14.01,2013-05-23 04:33:00,
2013-05-22 20:37:00,36.4,34.8,29.89,ESE,107,5.0,8.0,94,0.00,,---,1.11,VWS V14.01,2013-05-23 04:37:00,
2013-05-22 20:38:00,36.4,34.8,29.89,East,92,8.0,8.0,94,0.00,,---,1.11,VWS V14.01,2013-05-23 04:38:00,
2013-05-22 20:42:00,36.4,34.8,29.89,East,82,5.0,7.0,94,0.00,,---,1.11,VWS V14.01,2013-05-23 04:42:00,
2013-05-22 20:43:00,36.4,34.8,29.89,ESE,105,5.0,7.0,94,0.00,,---,1.11,VWS V14.01,2013-05-23 04:43:00,
2013-05-22 20:47:00,36.4,34.8,29.89,East,85,6.0,8.0,94,0.00,,---,1.11,VWS V14.01,2013-05-23 04:47:00,
2013-05-22 20:48:00,36.4,34.8,29.89,East,90,5.0,8.0,94,0.00,,---,1.11,VWS V14.01,2013-05-23 04:48:00,
2013-05-22 20:52:00,36.4,34.8,29.89,East,96,4.0,7.0,94,0.00,,---,1.11,VWS V14.01,2013-05-23 04:52:00,
2013-05-22 20:53:00,36.4,34.8,29.89,East,94,8.0,9.0,94,0.00,,---,1.11,VWS V14.01,2013-05-23 04:53:00,
2013-05-22 20:57:00,36.4,34.8,29.89,ESE,103,5.0,8.0,94,0.00,,---,1.11,VWS V14.01,2013-05-23 04:57:00,
2013-05-22 20:58:00,36.4,34.8,29.89,ESE,103,5.0,8.0,94,0.00,,---,1.11,VWS V14.01,2013-05-23 04:58:00,
2013-05-22 20:59:00,36.5,34.9,29.89,East,98,9.0,11.0,94,0.00,,---,1.11,VWS V14.01,2013-05-23 04:59:00,
2013-05-22 21:02:00,36.5,34.9,29.89,East,92,5.0,8.0,94,0.00,,---,1.11,VWS V14.01,2013-05-23 05:02:00,
2013-05-22 21:03:00,36.5,34.9,29.89,East,92,5.0,8.0,94,0.00,,---,1.11,VWS V14.01,2013-05-23 05:03:00,
2013-05-22 21:04:00,36.5,34.9,29.89,ESE,103,6.0,8.0,94,0.00,,---,1.11,VWS V14.01,2013-05-23 05:04:00,
2013-05-22 21:07:00,36.5,34.9,29.89,East,82,6.0,11.0,94,0.00,,---,1.11,VWS V14.01,2013-05-23 05:07:00,
2013-05-22 21:09:00,36.5,34.9,29.89,East,87,8.0,11.0,94,0.00,,---,1.11,VWS V14.01,2013-05-23 05:09:00,
2013-05-22 21:13:00,36.5,34.9,29.89,East,80,6.0,10.0,94,0.00,,---,1.11,VWS V14.01,2013-05-23 05:13:00,
2013-05-22 21:14:00,36.5,34.9,29.89,East,98,5.0,10.0,94,0.00,,---,1.11,VWS V14.01,2013-05-23 05:14:00,
2013-05-22 21:15:00,36.6,35.0,29.89,East,97,7.0,10.0,94,0.00,,---,1.11,VWS V14.01,2013-05-23 05:15:00,
2013-05-22 21:18:00,36.5,34.9,29.89,East,82,6.0,9.0,94,0.01,,---,1.12,VWS V14.01,2013-05-23 05:18:00,
2013-05-22 21:19:00,36.5,34.9,29.89,East,86,5.0,9.0,94,0.01,,---,1.12,VWS V14.01,2013-05-23 05:19:00,
2013-05-22 21:20:00,36.5,34.9,29.89,East,95,6.0,9.0,94,0.01,,---,1.12,VWS V14.01,2013-05-23 05:20:00,
2013-05-22 21:21:00,36.5,34.9,29.89,East,85,3.0,7.0,94,0.01,,---,1.12,VWS V14.01,2013-05-23 05:21:00,
2013-05-22 21:23:00,36.4,34.8,29.89,East,94,6.0,10.0,94,0.01,,---,1.12,VWS V14.01,2013-05-23 05:23:00,
2013-05-22 21:25:00,36.4,34.8,29.89,ENE,76,5.0,11.0,94,0.01,,---,1.12,VWS V14.01,2013-05-23 05:25:00,
2013-05-22 21:26:00,36.4,34.8,29.89,East,84,10.0,11.0,94,0.01,,---,1.12,VWS V14.01,2013-05-23 05:26:00,
2013-05-22 21:28:00,36.4,34.8,29.89,ENE,76,5.0,8.0,94,0.01,,---,1.12,VWS V14.01,2013-05-23 05:28:00,
2013-05-22 21:30:00,36.4,34.8,29.89,ENE,76,5.0,9.0,94,0.01,,---,1.12,VWS V14.01,2013-05-23 05:30:00,
2013-05-22 21:31:00,36.4,34.8,29.89,East,79,5.0,9.0,94,0.01,,---,1.12,VWS V14.01,2013-05-23 05:31:00,
2013-05-22 21:32:00,36.4,34.8,29.89,East,93,6.0,9.0,94,0.01,,---,1.12,VWS V14.01,2013-05-23 05:32:00,
2013-05-22 21:33:00,36.4,34.8,29.89,East,92,5.0,9.0,94,0.01,,---,1.12,VWS V14.01,2013-05-23 05:33:00,
2013-05-22 21:35:00,36.4,34.8,29.89,East,92,5.0,9.0,94,0.01,,---,1.12,VWS V14.01,2013-05-23 05:35:00,
2013-05-22 21:36:00,36.5,34.9,29.89,East,92,8.0,9.0,94,0.01,,---,1.12,VWS V14.01,2013-05-23 05:36:00,
2013-05-22 21:37:00,36.5,34.9,29.89,ESE,104,8.0,10.0,94,0.01,,---,1.12,VWS V14.01,2013-05-23 05:37:00,
2013-05-22 21:38:00,36.5,34.9,29.89,East,83,10.0,11.0,94,0.01,,---,1.12,VWS V14.01,2013-05-23 05:38:00,
2013-05-22 21:40:00,36.6,34.8,29.89,ESE,103,5.0,11.0,93,0.01,,---,1.12,VWS V14.01,2013-05-23 05:40:00,
2013-05-22 21:41:00,36.6,35.0,29.89,East,90,6.0,11.0,94,0.01,,---,1.12,VWS V14.01,2013-05-23 05:41:00,
2013-05-22 21:42:00,36.6,34.8,29.89,East,94,7.0,11.0,93,0.01,,---,1.12,VWS V14.01,2013-05-23 05:42:00,
2013-05-22 21:43:00,36.6,34.8,29.89,East,88,8.0,11.0,93,0.01,,---,1.12,VWS V14.01,2013-05-23 05:43:00,
2013-05-22 21:45:00,36.7,34.9,29.89,East,98,11.0,13.0,93,0.01,,---,1.12,VWS V14.01,2013-05-23 05:45:00,
2013-05-22 21:46:00,36.6,34.8,29.89,ESE,102,5.0,6.0,93,0.01,,---,1.12,VWS V14.01,2013-05-23 05:46:00,
2013-05-22 21:47:00,36.7,34.9,29.89,East,92,5.0,6.0,93,0.01,,---,1.12,VWS V14.01,2013-05-23 05:47:00,
2013-05-22 21:48:00,36.7,34.9,29.89,East,101,8.0,8.0,93,0.01,,---,1.12,VWS V14.01,2013-05-23 05:48:00,
2013-05-22 21:51:00,36.7,34.9,29.90,ESE,105,7.0,9.0,93,0.01,,---,1.12,VWS V14.01,2013-05-23 05:51:00,
2013-05-22 21:53:00,36.7,34.9,29.90,ESE,106,7.0,11.0,93,0.01,,---,1.12,VWS V14.01,2013-05-23 05:53:00,
2013-05-22 21:56:00,36.6,34.8,29.89,ESE,106,8.0,9.0,93,0.01,,---,1.12,VWS V14.01,2013-05-23 05:56:00,
2013-05-22 21:57:00,36.6,34.8,29.89,East,95,7.0,9.0,93,0.01,,---,1.12,VWS V14.01,2013-05-23 05:57:00,
2013-05-22 21:58:00,36.5,34.7,29.89,SE,126,6.0,9.0,93,0.01,,---,1.12,VWS V14.01,2013-05-23 05:58:00,
2013-05-22 21:59:00,36.4,34.6,29.89,ESE,116,11.0,11.0,93,0.01,,---,1.12,VWS V14.01,2013-05-23 05:59:00,
2013-05-22 22:02:00,36.4,34.6,29.90,ESE,104,8.0,13.0,93,0.01,,---,1.12,VWS V14.01,2013-05-23 06:02:00,
2013-05-22 22:03:00,36.3,34.5,29.90,East,95,8.0,13.0,93,0.01,,---,1.12,VWS V14.01,2013-05-23 06:03:00,
2013-05-22 22:04:00,36.3,34.5,29.90,ESE,103,6.0,13.0,93,0.01,,---,1.12,VWS V14.01,2013-05-23 06:04:00,
2013-05-22 22:05:00,36.3,34.5,29.90,ESE,103,4.0,13.0,93,0.01,,---,1.12,VWS V14.01,2013-05-23 06:05:00,
2013-05-22 22:07:00,36.2,34.4,29.90,ESE,104,5.0,9.0,93,0.01,,---,1.12,VWS V14.01,2013-05-23 06:07:00,
2013-05-22 22:08:00,36.2,34.4,29.90,East,98,7.0,9.0,93,0.01,,---,1.12,VWS V14.01,2013-05-23 06:08:00,
2013-05-22 22:09:00,36.1,34.5,29.90,ESE,106,5.0,9.0,94,0.01,,---,1.12,VWS V14.01,2013-05-23 06:09:00,
2013-05-22 22:10:00,36.1,34.5,29.90,ESE,105,4.0,9.0,94,0.01,,---,1.12,VWS V14.01,2013-05-23 06:10:00,
2013-05-22 22:12:00,36.1,34.5,29.90,ESE,104,7.0,9.0,94,0.01,,---,1.12,VWS V14.01,2013-05-23 06:12:00,
2013-05-22 22:13:00,36.0,34.4,29.89,East,84,4.0,9.0,94,0.01,,---,1.12,VWS V14.01,2013-05-23 06:13:00,
2013-05-22 22:14:00,36.0,34.4,29.90,East,90,5.0,11.0,94,0.01,,---,1.12,VWS V14.01,2013-05-23 06:14:00,
2013-05-22 22:15:00,36.0,34.4,29.90,East,88,5.0,11.0,94,0.01,,---,1.12,VWS V14.01,2013-05-23 06:15:00,
2013-05-22 22:17:00,35.9,34.3,29.90,East,99,6.0,7.0,94,0.01,,---,1.12,VWS V14.01,2013-05-23 06:17:00,
2013-05-22 22:18:00,35.9,34.3,29.90,East,84,5.0,8.0,94,0.01,,---,1.12,VWS V14.01,2013-05-23 06:18:00,
2013-05-22 22:19:00,35.8,34.2,29.90,ENE,76,6.0,10.0,94,0.01,,---,1.12,VWS V14.01,2013-05-23 06:19:00,
2013-05-22 22:20:00,35.8,34.2,29.90,ENE,74,6.0,10.0,94,0.01,,---,1.12,VWS V14.01,2013-05-23 06:20:00,
2013-05-22 22:22:00,35.8,34.2,29.90,East,86,5.0,7.0,94,0.00,,---,1.12,VWS V14.01,2013-05-23 06:22:00,
2013-05-22 22:24:00,35.8,34.2,29.90,East,83,3.0,7.0,94,0.00,,---,1.12,VWS V14.01,2013-05-23 06:24:00,
2013-05-22 22:25:00,35.7,34.2,29.90,East,84,4.0,7.0,94,0.00,,---,1.12,VWS V14.01,2013-05-23 06:25:00,
2013-05-22 22:27:00,35.7,34.2,29.90,East,90,4.0,7.0,94,0.00,,---,1.12,VWS V14.01,2013-05-23 06:27:00,
2013-05-22 22:28:00,35.7,34.2,29.90,East,80,4.0,7.0,94,0.00,,---,1.12,VWS V14.01,2013-05-23 06:28:00,
2013-05-22 22:30:00,35.7,34.2,29.90,East,86,6.0,9.0,94,0.00,,---,1.12,VWS V14.01,2013-05-23 06:30:00,
2013-05-22 22:32:00,35.7,34.2,29.90,ENE,76,4.0,8.0,94,0.00,,---,1.12,VWS V14.01,2013-05-23 06:32:00,
2013-05-22 22:33:00,35.7,34.2,29.90,East,101,6.0,10.0,94,0.00,,---,1.12,VWS V14.01,2013-05-23 06:33:00,
2013-05-22 22:35:00,35.7,34.2,29.90,East,84,8.0,11.0,94,0.00,,---,1.12,VWS V14.01,2013-05-23 06:35:00,
2013-05-22 22:37:00,35.8,34.2,29.90,East,81,11.0,11.0,94,0.00,,---,1.12,VWS V14.01,2013-05-23 06:37:00,
2013-05-22 22:39:00,35.8,34.2,29.90,ESE,103,8.0,11.0,94,0.00,,---,1.12,VWS V14.01,2013-05-23 06:39:00,
2013-05-22 22:40:00,35.8,34.2,29.90,East,92,6.0,11.0,94,0.00,,---,1.12,VWS V14.01,2013-05-23 06:40:00,
2013-05-22 22:41:00,35.9,34.3,29.90,ENE,72,5.0,11.0,94,0.00,,---,1.12,VWS V14.01,2013-05-23 06:41:00,
2013-05-22 22:43:00,35.9,34.3,29.90,ENE,74,10.0,11.0,94,0.00,,---,1.12,VWS V14.01,2013-05-23 06:43:00,
2013-05-22 22:44:00,35.9,34.3,29.90,ENE,73,8.0,12.0,94,0.00,,---,1.12,VWS V14.01,2013-05-23 06:44:00,
2013-05-22 22:45:00,35.9,34.3,29.90,East,85,7.0,14.0,94,0.00,,---,1.12,VWS V14.01,2013-05-23 06:45:00,
2013-05-22 22:46:00,35.9,34.3,29.90,East,101,8.0,14.0,94,0.00,,---,1.12,VWS V14.01,2013-05-23 06:46:00,
2013-05-22 22:48:00,35.9,34.3,29.90,ENE,78,8.0,11.0,94,0.00,,---,1.12,VWS V14.01,2013-05-23 06:48:00,
2013-05-22 22:49:00,35.9,34.3,29.90,ENE,78,5.0,11.0,94,0.00,,---,1.12,VWS V14.01,2013-05-23 06:49:00,
2013-05-22 22:51:00,35.9,34.6,29.90,East,88,5.0,11.0,95,0.00,,---,1.12,VWS V14.01,2013-05-23 06:51:00,
2013-05-22 22:54:00,35.8,34.2,29.90,East,80,4.0,9.0,94,0.00,,---,1.12,VWS V14.01,2013-05-23 06:54:00,
2013-05-22 22:56:00,35.7,34.4,29.90,East,84,6.0,11.0,95,0.00,,---,1.12,VWS V14.01,2013-05-23 06:56:00,
2013-05-22 22:59:00,35.7,34.4,29.90,East,89,6.0,9.0,95,0.00,,---,1.12,VWS V14.01,2013-05-23 06:59:00,
2013-05-22 23:01:00,35.6,34.3,29.90,East,97,6.0,9.0,95,0.00,,---,1.12,VWS V14.01,2013-05-23 07:01:00,
2013-05-22 23:02:00,35.5,34.2,29.90,East,93,6.0,7.0,95,0.00,,---,1.12,VWS V14.01,2013-05-23 07:02:00,
2013-05-22 23:04:00,35.5,34.2,29.90,East,92,5.0,10.0,95,0.00,,---,1.12,VWS V14.01,2013-05-23 07:04:00,
2013-05-22 23:06:00,35.5,34.2,29.90,East,94,7.0,10.0,95,0.00,,---,1.12,VWS V14.01,2013-05-23 07:06:00,
2013-05-22 23:07:00,35.5,34.2,29.90,East,86,4.0,6.0,95,0.00,,---,1.12,VWS V14.01,2013-05-23 07:07:00,
2013-05-22 23:09:00,35.4,34.1,29.90,ESE,104,5.0,10.0,95,0.00,,---,1.12,VWS V14.01,2013-05-23 07:09:00,
2013-05-22 23:11:00,35.4,34.4,29.90,East,98,6.0,11.0,96,0.00,,---,1.12,VWS V14.01,2013-05-23 07:11:00,
2013-05-22 23:12:00,35.4,34.4,29.90,East,86,3.0,5.0,96,0.00,,---,1.12,VWS V14.01,2013-05-23 07:12:00,
2013-05-22 23:14:00,35.4,34.4,29.90,ENE,78,5.0,9.0,96,0.00,,---,1.12,VWS V14.01,2013-05-23 07:14:00,
2013-05-22 23:15:00,35.4,34.4,29.91,East,92,5.0,9.0,96,0.00,,---,1.12,VWS V14.01,2013-05-23 07:15:00,
2013-05-22 23:16:00,35.4,34.4,29.91,East,80,4.0,5.0,96,0.00,,---,1.12,VWS V14.01,2013-05-23 07:16:00,
2013-05-22 23:17:00,35.4,34.4,29.91,East,90,6.0,7.0,96,0.00,,---,1.12,VWS V14.01,2013-05-23 07:17:00,
2013-05-22 23:18:00,35.4,34.4,29.91,East,94,4.0,7.0,96,0.00,,---,1.12,VWS V14.01,2013-05-23 07:18:00,
2013-05-22 23:19:00,35.4,34.4,29.91,ENE,75,3.0,7.0,96,0.00,,---,1.12,VWS V14.01,2013-05-23 07:19:00,
2013-05-22 23:20:00,35.4,34.4,29.91,East,84,5.0,7.0,96,0.00,,---,1.12,VWS V14.01,2013-05-23 07:20:00,
2013-05-22 23:21:00,35.4,34.4,29.91,ESE,112,8.0,8.0,96,0.00,,---,1.12,VWS V14.01,2013-05-23 07:21:00,
2013-05-22 23:22:00,35.4,34.4,29.91,East,89,4.0,8.0,96,0.00,,---,1.12,VWS V14.01,2013-05-23 07:22:00,
2013-05-22 23:23:00,35.4,34.4,29.91,East,84,5.0,8.0,96,0.00,,---,1.12,VWS V14.01,2013-05-23 07:23:00,
2013-05-22 23:24:00,35.4,34.4,29.91,East,81,6.0,9.0,96,0.00,,---,1.12,VWS V14.01,2013-05-23 07:24:00,
2013-05-22 23:25:00,35.5,34.5,29.91,East,90,6.0,9.0,96,0.00,,---,1.12,VWS V14.01,2013-05-23 07:25:00,
2013-05-22 23:27:00,35.5,34.5,29.91,East,84,3.0,6.0,96,0.00,,---,1.12,VWS V14.01,2013-05-23 07:27:00,
2013-05-22 23:28:00,35.5,34.5,29.91,East,82,4.0,6.0,96,0.00,,---,1.12,VWS V14.01,2013-05-23 07:28:00,
2013-05-22 23:30:00,35.5,34.5,29.91,East,84,5.0,7.0,96,0.01,,---,1.13,VWS V14.01,2013-05-23 07:30:00,
2013-05-22 23:32:00,35.5,34.5,29.91,East,90,4.0,5.0,96,0.01,,---,1.13,VWS V14.01,2013-05-23 07:32:00,
2013-05-22 23:34:00,35.5,34.5,29.91,East,99,4.0,5.0,96,0.01,,---,1.13,VWS V14.01,2013-05-23 07:34:00,
2013-05-22 23:35:00,35.5,34.5,29.91,East,90,5.0,8.0,96,0.01,,---,1.13,VWS V14.01,2013-05-23 07:35:00,
2013-05-22 23:37:00,35.5,34.5,29.91,East,95,5.0,8.0,96,0.01,,---,1.13,VWS V14.01,2013-05-23 07:37:00,
2013-05-22 23:39:00,35.6,34.6,29.91,East,86,2.0,8.0,96,0.01,,---,1.13,VWS V14.01,2013-05-23 07:39:00,
2013-05-22 23:40:00,35.6,34.6,29.91,East,86,7.0,8.0,96,0.01,,---,1.13,VWS V14.01,2013-05-23 07:40:00,
2013-05-22 23:42:00,35.6,34.6,29.91,East,99,4.0,7.0,96,0.01,,---,1.13,VWS V14.01,2013-05-23 07:42:00,
2013-05-22 23:44:00,35.7,34.7,29.91,ESE,102,5.0,7.0,96,0.01,,---,1.13,VWS V14.01,2013-05-23 07:44:00,
2013-05-22 23:46:00,35.7,34.7,29.91,East,101,4.0,8.0,96,0.01,,---,1.13,VWS V14.01,2013-05-23 07:46:00,
2013-05-22 23:47:00,35.8,34.8,29.91,ESE,115,2.0,5.0,96,0.01,,---,1.13,VWS V14.01,2013-05-23 07:47:00,
2013-05-22 23:49:00,35.7,34.7,29.92,ESE,115,0.0,5.0,96,0.01,,---,1.13,VWS V14.01,2013-05-23 07:49:00,
2013-05-22 23:51:00,35.6,34.6,29.92,ESE,115,0.0,5.0,96,0.01,,---,1.13,VWS V14.01,2013-05-23 07:51:00,
2013-05-22 23:53:00,35.5,34.2,29.92,ESE,115,0.0,0.0,95,0.01,,---,1.13,VWS V14.01,2013-05-23 07:53:00,
2013-05-22 23:55:00,35.2,33.9,29.92,ESE,115,0.0,2.0,95,0.01,,---,1.13,VWS V14.01,2013-05-23 07:55:00,
2013-05-22 23:56:00,35.2,33.9,29.92,ESE,115,0.0,2.0,95,0.01,,---,1.13,VWS V14.01,2013-05-23 07:56:00,
2013-05-22 23:57:00,35.1,33.8,29.92,ESE,115,0.0,2.0,95,0.01,,---,0.00,VWS V14.01,2013-05-23 07:57:00,
2013-05-22 23:58:00,35.0,33.7,29.92,ESE,115,1.0,2.0,95,0.01,,---,0.00,VWS V14.01,2013-05-23 07:58:00,